[{"header": {"dx": 0.06612293990616946, "dy": 0.0552356325346848, "nx": 98, "ny": 59, "la1": 35.046912555036876, "la2": 31.78801023549047, "lo1": -121.43107172385933, "lo2": -114.95102361305473, "refTime": "2026041110", "parameterCategory": 1, "parameterNumber": 2}, "data": [12.39, 12.17, 11.69, 12.07, 11.72, 10.94, 9.8, 9.42, 7.93, 5.48, 3.98, 2.37, 1.98, -0.0, -0.0, -0.0, -2.19, -2.49, -0.0, -0.0, -0.0, 2.82, 3.98, 4.8, 3.68, 3.82, 3.82, -0.0, -0.0, -0.0, -3.96, -5.6, -5.4, -0.0, 6.95, 6.71, 7.15, 7.6, 7.6, 8.05, 9.75, 10.84, 11.62, 12.96, 14.3, 15.2, 17.43, 15.38, 9.92, 8.21, 8.05, 9.8, 10.43, 10.86, 10.12, 8.31, 9.48, 10.47, 11.88, 12.87, 12.87, 12.39, 11.5, 11.5, 11.99, 11.99, 13.15, 12.72, 13.96, 15.27, 16.82, 17.43, 16.54, 15.61, 13.02, 11.8, 11.09, 7.19, -7.69, -9.66, -6.97, -3.98, -3.65, -2.83, -2.58, -1.04, 0.0, 0.0, 1.47, 5.32, 7.95, 8.32, 9.17, 9.64, 10.12, 10.62, 10.09, 10.41, 12.39, 12.39, 11.69, 11.69, 12.07, 11.72, 10.69, 10.12, 8.18, 6.6, 3.85, 3.25, 1.91, -0.0, -0.0, -0.0, -3.82, -3.68, -3.53, -2.02, -0.0, -0.0, 2.82, 4.48, 3.98, 3.53, -0.0, -0.0, -0.0, -0.0, -0.0, -0.0, -0.0, -0.0, 6.64, 7.6, 8.05, 8.49, 8.49, 9.83, 11.45, 12.3, 12.96, 14.3, 16.05, 18.33, 16.37, 6.81, 6.52, 8.05, 9.48, 11.09, 12.11, 11.75, 10.82, 9.8, 8.31, 11.88, 12.39, 12.87, 12.39, 10.73, 7.78, 9.17, 11.16, 12.39, 12.39, 12.87, 13.96, 15.53, 16.82, 17.88, 17.43, 16.09, 14.42, 12.27, 11.53, 7.19, -7.69, -9.66, -6.97, -3.98, -3.65, -2.83, -2.58, -1.04, 0.0, 0.0, 1.47, 5.32, 7.95, 8.32, 9.17, 9.64, 10.12, 10.62, 10.09, 10.41, 12.79, 12.39, 12.17, 11.69, 12.07, 12.09, 11.03, 10.43, 9.33, 7.16, 4.65, 3.08, 1.98, 1.91, -0.0, -2.1, -2.71, -5.2, -5.0, -3.82, -2.6, -0.0, -0.0, 4.81, 6.9, 5.52, 3.39, -0.0, -3.39, -2.28, -0.0, -0.0, -0.0, 4.38, 8.22, 10.73, 9.83, 9.39, 9.83, 10.73, 12.52, 13.86, 15.61, 17.53, 19.08, 19.67, 8.8, 5.23, 7.93, 9.17, 11.72, 12.87, 13.15, 12.74, 10.37, 9.48, 9.48, 11.88, 12.39, 12.87, 9.48, 6.0, 7.78, 9.17, 11.16, 11.8, 11.87, 11.93, 11.88, 14.99, 16.48, 16.48, 17.43, 16.99, 14.75, 14.31, 12.79, 0.0, -12.87, -9.97, -7.59, -5.9, -3.49, -4.6, -3.7, -2.49, -1.16, 0.0, 1.33, 5.86, 8.66, 9.27, 8.97, 9.48, 9.69, 9.97, 10.73, 8.18, 12.79, 12.79, 12.56, 12.17, 12.07, 12.45, 11.87, 10.75, 10.01, 7.93, 4.65, 3.08, 3.32, 1.84, -0.0, -0.0, -2.82, -6.7, -6.45, -5.2, -2.6, -0.0, -0.0, 2.82, 4.48, 6.44, 4.6, -0.0, -3.25, -5.0, -4.48, -0.0, -0.0, 2.72, 7.44, 10.8, 11.87, 12.07, 11.62, 13.41, 15.61, 18.41, 18.85, 17.97, 17.43, 11.7, 5.8, 4.65, 7.82, 11.6, 12.51, 13.19, 13.15, 12.89, 9.48, 9.17, 11.99, 12.45, 12.87, 12.39, 9.48, 5.8, 6.44, 9.48, 9.16, 10.3, 11.06, 11.7, 11.82, 11.44, 16.54, 5.37, 7.6, 17.43, 16.09, 14.47, 9.8, -9.48, -13.42, -10.79, -6.95, -5.06, -4.83, -5.29, -6.7, -3.98, -2.1, 0.0, 2.42, 7.68, 9.62, 8.66, 8.1, 8.53, 10.18, 6.95, 7.59, 10.4, 13.15, 12.79, 12.56, 12.56, 12.07, 12.45, 11.87, 11.36, 10.01, 7.93, 5.6, 3.08, 3.68, 2.19, -0.0, -0.0, -2.28, -5.4, -6.7, -5.4, -3.96, -0.0, -0.0, -0.0, 2.71, 2.37, 4.48, 2.82, -0.0, -2.49, -5.95, -6.2, -0.0, 3.19, 7.26, 8.94, 10.4, 12.58, 15.65, 18.33, 19.22, 16.91, 15.2, 13.86, 12.58, 10.04, 5.4, 5.6, 10.12, 12.3, 12.79, 12.92, 12.88, 11.6, 9.17, 9.48, 11.99, 12.45, 12.87, 11.16, 7.19, 5.8, 6.67, 6.2, 5.99, 7.2, 9.12, 9.92, 11.56, 12.56, 11.2, 16.48, 0.0, 18.33, 17.53, 14.75, 0.0, -9.17, -11.8, -11.28, -7.47, -6.95, -6.95, -7.27, -7.15, -6.2, -1.58, 1.33, 4.58, 7.92, 8.51, 8.24, 7.73, 10.28, -1.84, 2.49, 10.4, 11.84, 13.15, 12.62, 13.02, 12.56, 12.56, 12.45, 12.45, 11.36, 10.75, 7.93, 5.86, 4.36, 3.53, 2.6, -0.0, -0.0, -0.0, -5.4, -7.24, -8.85, -6.94, -5.4, -0.0, -0.0, -0.0, 2.45, 3.96, 4.1, 2.45, -0.0, -3.11, -8.8, -7.27, 6.7, 10.47, 11.26, 11.6, 13.44, 17.43, 18.33, -0.0, 3.47, 7.51, 10.01, 11.2, 10.04, 8.22, 8.85, 11.87, 12.45, 12.07, 12.52, 12.39, 10.79, 11.16, 11.99, 12.58, 13.01, 11.99, 9.48, 5.6, 4.48, 4.87, 4.11, 4.24, 5.98, 7.6, 8.78, 11.1, 13.07, 14.99, 13.01, 12.33, 12.01, 14.55, 13.59, -13.59, -11.09, -10.01, -9.77, -7.27, -7.59, -6.87, -6.87, -6.5, -4.72, -1.16, 2.56, 6.29, 6.4, 6.94, 7.51, 7.9, -2.17, -0.0, 9.67, 12.07, 12.27, 13.15, 13.02, 12.62, 13.02, 12.95, 13.34, 12.45, 11.36, 10.75, 8.83, 5.43, 4.18, 4.6, 4.6, -0.0, -0.0, -0.0, -3.04, -8.85, -10.41, -10.79, -11.9, -10.43, -3.69, -0.0, 3.47, 3.69, 6.4, 6.0, 5.0, 3.39, -0.0, -0.0, 5.7, 9.97, 11.53, 12.42, 12.74, 13.01, -0.0, -6.4, -0.0, 8.05, 10.47, 11.88, 10.73, 11.2, 12.79, 12.52, 12.42, 12.42, 12.07, 12.58, 10.79, 10.79, 12.58, 12.96, 12.52, 12.3, 6.94, 2.93, 1.61, 2.72, 2.81, 4.66, 6.54, 8.25, 9.42, 10.76, 15.01, 16.23, 13.88, 12.4, 14.11, 14.18, 14.57, -16.09, -13.7, -11.5, -8.1, -7.15, -7.24, -6.45, -6.45, -4.32, -1.84, 0.0, 1.3, 3.88, 4.98, 5.4, 4.32, -6.64, -4.4, -0.0, 12.07, 12.52, 12.71, 13.01, 13.02, 13.44, 13.43, 13.84, 13.34, 12.45, 12.45, 11.03, 8.54, 5.69, 3.81, 5.29, 4.15, 3.96, 2.71, -0.0, -0.0, -4.1, -11.6, -11.99, -11.16, -11.16, -14.84, -13.99, -0.0, 15.2, 11.06, 6.6, 6.0, 5.4, 5.4, 5.6, 8.85, 8.73, 11.2, 12.46, 10.47, 10.62, 11.28, -0.0, -0.0, 8.93, 13.95, 11.38, 11.16, 11.44, 12.96, 12.46, 13.23, 11.62, 12.07, 12.52, 11.2, 11.87, 12.52, 12.07, 12.07, 11.62, -0.0, -0.0, 1.43, 1.38, 3.36, 3.93, 6.8, 10.3, 12.71, 14.03, 15.58, 17.28, 15.91, 14.03, 15.69, 15.55, 14.99, -0.0, -14.75, -11.09, -4.81, -3.82, -5.4, -5.57, -4.47, -2.71, -0.99, 0.0, 1.3, 2.63, 3.44, 2.37, -11.62, -6.45, -5.4, 12.07, 12.07, 12.96, 12.71, 13.44, 13.44, 13.44, 13.86, 13.84, 13.03, 13.03, 12.45, 11.29, 8.24, 6.44, 4.6, 5.8, 5.8, 4.65, 3.04, 3.14, 2.54, -0.0, -0.0, -0.0, -0.0, -9.48, -13.57, -12.52, -11.62, 0.0, -13.41, -0.0, 7.69, 7.69, 8.43, 8.43, 9.8, 10.04, 11.03, 10.73, 10.41, 10.28, 10.73, 8.85, 6.4, 10.12, 9.17, 10.35, 9.86, 12.33, 13.15, 12.89, 13.01, 11.88, 8.53, 12.07, 8.53, 12.07, 11.62, 11.62, 11.18, -0.0, -0.0, -0.0, -0.0, 1.61, 3.68, 7.13, 11.44, 14.84, 15.97, 16.09, 16.09, 16.06, 16.86, 16.47, 15.2, 14.11, 14.75, 14.75, -13.15, -9.8, -7.4, 0.0, -4.39, -4.12, -3.68, -1.91, -1.0, 0.0, 0.0, 0.0, -3.82, -12.07, -3.82, -6.45, -8.85, 12.52, 12.07, 13.41, 12.27, 13.88, 13.8, 13.86, 13.86, 13.84, 13.59, 13.03, 12.45, 11.29, 9.42, 8.22, 7.02, 5.99, 6.88, 7.13, 4.98, 2.81, 2.89, -0.0, -0.0, -0.0, -0.0, -0.0, -0.0, -13.86, -11.18, -8.94, -10.73, 14.75, 12.79, 14.3, 16.09, 15.2, 13.41, 11.45, 10.52, 10.28, 9.21, 11.62, 12.58, 10.37, 9.17, 9.3, 8.58, 9.6, 10.62, 11.03, 10.79, 10.99, 11.31, 10.23, 8.3, 3.82, 8.22, 6.2, 6.2, 8.22, 7.9, -0.0, -0.0, -0.0, 1.38, 2.43, 4.24, 9.8, 13.86, 14.18, 14.13, 14.28, 15.18, 15.6, 15.65, 16.09, 14.75, 14.3, 13.86, -5.8, -8.85, -9.17, -8.85, -4.23, 0.0, -2.13, -3.04, -1.98, -2.28, 0.0, 11.62, 11.62, -0.0, -0.0, -0.0, -0.0, -8.85, 12.52, 12.52, 13.86, 11.4, 14.11, 13.8, 14.23, 13.86, 13.86, 13.59, 13.59, 12.65, 10.94, 9.42, 8.85, 8.44, 8.59, 7.69, 8.58, 5.31, 7.2, 4.81, 4.81, 3.16, -0.0, 17.43, 16.99, 14.75, 14.75, 12.07, 10.28, 10.28, 12.96, 14.3, 13.41, 12.96, 11.62, 8.22, 11.03, 11.62, 11.18, 11.18, 10.4, 11.88, 11.44, 9.48, 10.04, 10.4, 9.96, 10.05, 10.0, 8.94, 9.52, 9.81, 9.64, 7.43, 3.73, 2.45, 11.62, 5.2, 0.0, -4.32, -11.03, -0.0, 2.11, 2.81, 3.81, 6.4, 10.12, 13.57, 14.3, 11.75, 9.21, 9.8, 12.27, 13.44, 14.68, 14.3, 10.12, -14.3, -9.17, -9.48, -11.52, -10.75, -7.0, 0.0, 0.0, 0.0, 0.0, 12.96, 10.04, 9.66, 8.22, 8.22, 8.22, 7.9, -0.0, -0.0, 11.2, 13.86, 12.52, 12.07, 14.11, 13.8, 13.8, 14.23, 13.86, 13.7, 13.59, 12.65, 10.94, 10.23, 9.76, 9.48, 10.12, 10.12, 9.48, 7.82, 6.44, 7.36, 5.81, 6.31, 7.2, 15.65, 15.65, 16.09, 13.41, 12.96, 12.52, 7.21, 10.28, 8.94, 9.83, 10.73, 10.73, 9.39, 9.2, 9.55, 10.28, 10.79, 8.53, 9.48, 9.8, 11.09, 10.01, 10.4, 9.2, 7.81, 9.08, 9.08, 9.42, 9.62, 7.43, 5.99, 2.98, 2.88, 3.22, 3.85, 4.81, -13.86, -10.41, -2.16, 2.02, 5.15, 3.93, 3.47, 5.31, 8.43, 9.81, 10.6, 13.57, 5.46, 7.82, 9.6, 12.45, 11.99, -6.0, -13.41, -10.73, -11.8, -13.59, -12.65, -11.8, -8.18, 0.0, 16.09, 11.38, 11.7, 13.03, 11.5, 10.12, 10.73, 11.45, 12.07, -12.52, -0.0, 12.07, 12.96, 12.07, 12.52, 14.11, 14.11, 13.8, 14.23, 13.86, 13.7, 13.19, 12.27, 11.9, 10.59, 10.59, 10.43, 10.86, 10.43, 10.75, 10.75, 9.8, 8.1, 7.51, 7.78, 7.44, 9.17, 12.96, 12.96, 12.96, 12.14, 12.35, 11.87, 10.6, 8.94, 9.83, 11.18, 11.18, 10.73, 10.28, 9.83, 9.64, 8.94, 6.71, 9.08, 10.41, 10.79, 9.66, 8.93, 6.95, 6.44, 5.98, 7.54, 7.54, 8.01, 6.24, 4.81, 0.89, -0.0, 1.34, 3.82, 6.53, 9.92, 1.71, -2.08, 0.96, 4.58, 2.91, -0.0, 0.92, 3.13, 5.13, 6.22, 5.36, 8.77, 14.88, 15.99, -6.0, -11.03, -9.67, -13.41, -13.99, -15.69, -15.65, -15.65, -13.59, -10.75, 14.75, -0.0, 4.01, 9.66, 11.38, 10.43, 9.16, 10.86, 11.9, 12.52, -12.07, 12.07, 12.07, 12.96, 12.07, 12.52, 14.11, 14.11, 14.07, 13.8, 14.23, 13.86, 13.19, 12.79, 12.27, 11.53, 10.94, 11.29, 11.8, 11.54, 12.02, 12.36, 12.02, 10.75, 10.43, 10.12, 11.44, 11.9, 13.19, 14.75, 15.2, 13.86, 13.86, 13.72, 12.83, 12.07, 10.28, 10.73, 11.62, 10.28, 10.28, 9.26, 8.4, 8.82, 8.82, 9.2, 10.0, 10.6, 10.0, 10.0, 8.18, 5.7, 5.21, 5.52, 6.2, 6.45, 5.77, 3.07, -0.0, -0.0, -0.0, 2.71, 5.81, 9.12, 6.66, 0.89, -0.0, 3.1, -0.0, -1.34, -0.0, 1.63, 2.21, 3.7, 7.66, 10.23, 12.22, 14.46, -0.0, -11.18, -10.28, -13.57, -16.54, -16.99, 16.09, 11.38, 11.06, 13.59, 14.75, -0.0, -0.0, 5.64, 10.43, 8.59, 8.15, 9.48, 11.72, 12.3, 11.62, 12.07, 11.62, 12.07, 12.07, -0.0, 14.26, 14.11, 14.07, 13.8, 13.8, 13.86, 13.19, 13.19, 12.27, 11.9, 11.29, 11.29, 11.1, 12.16, 12.22, 12.71, 12.36, 12.36, 12.22, 12.22, 13.03, 13.03, 14.11, 14.75, 15.65, 15.65, 15.65, 14.75, 14.3, 13.41, 12.96, 11.18, 11.18, 10.28, 10.28, 9.54, 9.97, 8.72, 10.84, 9.7, 10.58, 11.62, 11.18, 10.41, 7.81, 6.64, 5.46, 5.9, 6.14, 6.42, 5.95, 1.45, -0.0, -0.0, -0.0, 1.84, 4.6, 5.72, 6.66, 4.24, 1.0, -0.0, -3.01, -2.81, -0.0, -0.0, 1.26, 3.76, 5.8, 8.68, 9.87, 11.92, 17.46, 10.43, -10.41, -13.76, -16.12, -16.09, 11.06, 12.65, 13.19, 12.79, 12.39, 9.48, -0.0, -0.0, 6.2, 6.63, 7.41, 9.69, 12.36, 12.38, 11.62, 11.62, 8.22, -0.0, -0.0, -0.0, 14.26, 14.11, 14.07, 13.8, 13.8, 13.44, 13.28, 13.19, 12.65, 12.27, 11.9, 12.27, 11.64, 12.16, 12.87, 12.56, 13.1, 14.36, 13.76, 12.57, 13.42, 13.42, 13.99, 14.84, 15.87, 16.09, 15.65, 15.65, 14.75, 14.3, 13.86, 13.86, 12.07, 10.28, 9.83, 8.38, 9.26, 9.7, 11.18, 10.73, 10.28, 10.73, 10.73, 9.54, 9.11, 7.44, 7.44, 6.32, 5.36, 5.86, 4.4, 1.54, 1.62, 1.84, 1.75, 1.75, 1.84, 2.82, 4.39, 5.11, 2.42, -0.0, -4.08, -5.4, -3.19, -0.0, -0.0, 3.04, 6.63, 8.54, 8.53, 11.64, 15.25, 19.41, 15.27, 16.05, 15.18, 14.75, 14.75, 14.03, 14.11, 13.32, 12.04, 10.35, 2.82, -0.0, 2.06, 5.4, 8.15, 9.42, 12.18, 11.21, 10.38, 10.0, 8.22, -0.0, -0.0, -0.0, 14.26, 14.11, 14.11, 13.37, 13.8, 13.44, 13.44, 13.19, 12.65, 12.65, 12.65, 12.27, 12.27, 12.65, 12.52, 12.87, 12.73, 14.36, 14.36, 13.76, 14.39, 13.8, 15.27, 15.04, 14.61, 15.2, 15.65, 15.65, 15.65, 16.09, 15.65, 15.65, 14.68, 12.52, 8.05, 8.49, 8.94, 10.28, 10.28, 10.28, 10.73, 9.39, 9.54, 7.81, 8.0, 7.44, 6.32, 6.32, 7.15, 6.32, 5.36, 2.17, 1.84, 1.93, 1.93, 1.93, 2.39, 3.11, 7.59, 8.22, 5.98, -0.0, -4.8, -6.7, -6.7, -4.2, -1.62, -0.0, 5.2, 9.21, 12.07, 13.28, 17.11, 17.59, 17.85, 14.7, 13.58, 14.79, 16.91, 16.41, 15.65, 15.2, 14.11, 10.73, 3.04, -0.0, -0.0, 7.82, 11.2, 11.87, 13.23, 11.11, 10.6, 11.21, 7.51, 2.37, 2.54, 2.54, 14.26, 14.26, 14.11, 13.67, 13.37, 13.44, 13.44, 13.02, 13.19, 12.65, 12.65, 12.27, 12.27, 12.65, 12.65, 12.51, 12.37, 13.1, 13.46, 13.97, 13.99, 14.53, 14.11, 13.99, 14.18, 15.2, 15.65, 15.65, 16.09, 16.37, 16.41, 16.44, 16.46, 14.68, 10.22, 7.15, 8.49, 9.83, 10.28, 10.28, 9.39, 8.49, 7.63, 8.06, 8.67, 8.0, 7.15, 7.15, 7.15, 7.67, 6.32, 2.83, -0.0, 2.17, 2.28, 2.28, 5.46, 5.46, 7.27, 7.59, 5.0, -0.0, -3.98, -6.17, -7.27, -5.59, -5.03, -2.69, 5.9, 10.4, 14.84, 15.61, 18.48, 18.78, 16.79, 14.47, 15.54, 18.02, 18.34, 15.49, 14.95, 14.3, 13.57, -4.1, -7.9, 11.62, 12.07, 10.8, 11.91, 12.22, 11.76, 11.03, 10.6, 10.8, 5.6, 4.65, 4.65, 4.65, 14.26, 14.26, 13.67, 13.67, 13.44, 13.02, 13.44, 13.02, 13.43, 12.65, 12.65, 12.65, 12.27, 12.27, 12.27, 13.39, 12.13, 13.27, 13.27, 13.59, 14.42, 14.53, 13.19, 13.99, 14.47, 16.54, 12.52, 16.54, 17.43, 14.75, 15.49, 15.97, 16.44, 16.01, 14.23, 10.68, 8.9, 8.9, 10.28, 11.18, 9.83, 9.39, 9.39, 8.94, 9.21, 8.72, 8.72, 8.3, 8.3, 7.67, 6.64, 3.32, 1.84, 2.17, 4.2, 4.2, 4.4, 4.6, 7.59, 7.59, 5.95, -0.0, -4.15, -5.06, -6.14, -6.32, -5.69, -8.49, 6.64, 11.91, 13.86, 16.26, 19.58, 20.38, 18.29, 16.71, 15.46, 15.67, 18.66, 19.22, 16.76, -14.3, -13.88, -12.58, -11.62, -10.4, 0.0, 6.2, 11.62, 11.62, 12.0, 11.71, 11.46, 6.7, -0.0, 4.81, 7.78, 7.78, 14.26, 14.26, 13.67, 13.67, 13.44, 13.15, 13.44, 13.02, 13.43, 12.95, 12.65, 12.65, 12.65, 12.65, 12.9, 12.5, 12.51, 12.13, 13.99, 13.59, 15.36, 14.53, 13.59, 16.05, 15.78, 16.22, 16.22, 14.55, 15.2, 15.65, 16.09, 15.93, 15.97, 16.44, 16.01, 13.8, 11.58, 10.69, 9.39, 8.49, 8.49, 8.94, 8.94, 8.94, 8.82, 10.14, 9.21, 8.72, 8.72, 7.67, 6.32, 3.32, 1.75, 1.75, 3.8, 4.0, 4.6, 6.64, 8.23, 9.3, 3.39, -2.49, -4.8, -6.17, -6.32, -7.15, -7.44, 9.39, 8.55, 11.18, 13.36, 16.54, 19.67, 20.53, 19.19, 16.99, 14.65, 14.44, 16.45, 18.41, 18.66, -17.43, -15.2, -12.96, -11.62, -11.18, -10.28, -7.27, 9.3, 9.6, 11.91, 12.96, 12.52, 4.1, -0.0, 7.13, 9.48, 9.48, 13.86, 14.26, 13.67, 13.67, 13.44, 13.44, 13.57, 13.02, 13.43, 13.43, 12.95, 12.65, 12.65, 13.19, 13.59, 13.29, 13.29, 12.66, 11.6, 13.97, 16.12, 14.79, 14.39, 14.42, 15.05, 15.53, 15.11, 15.55, 15.97, 16.54, 16.54, 16.41, 16.41, 16.44, 16.46, 15.14, 13.36, 11.58, 10.73, 8.94, 8.94, 9.39, 9.83, 9.83, 9.36, 10.62, 9.26, 9.21, 8.72, 8.3, 6.32, 3.32, 3.32, 3.32, 4.2, 4.6, 5.86, 7.87, 10.18, 7.27, -0.0, -2.02, -4.6, -6.17, -7.44, -7.81, -6.95, -0.0, 8.22, 11.45, 12.71, 14.9, 18.78, 17.82, 16.61, 15.59, 12.19, 13.38, 14.6, 15.2, 17.41, 18.59, -15.65, -13.86, -12.58, -9.6, -8.18, -10.28, 7.59, 7.27, 9.97, 12.66, 13.41, 9.17, -0.0, 8.05, 10.12, 10.12, 13.86, 13.81, 13.67, 13.67, 13.44, 13.44, 13.15, 13.57, 13.43, 13.43, 13.43, 12.95, 12.65, 13.19, 13.19, 13.59, 13.59, 13.07, 13.15, 14.13, 15.41, 15.27, 14.65, 15.18, 16.41, 16.86, 16.44, 15.57, 15.65, 16.09, 16.54, 16.54, 16.44, 16.44, 16.46, 16.03, 14.7, 12.93, 11.14, 10.28, 8.94, 9.39, 9.39, 9.36, 8.92, 8.02, 9.83, 9.7, 9.21, 8.3, 6.01, 4.37, 4.6, 3.32, 4.83, 4.83, 6.01, 8.03, 9.2, -0.0, -1.84, -1.39, -3.49, -5.21, -6.64, -6.95, -6.95, -2.6, -0.0, 3.68, 7.34, 12.24, 15.54, 17.81, 7.73, 9.48, 9.74, 10.52, 10.89, 13.8, 15.65, 15.18, 16.27, 13.88, 9.8, -0.0, -0.0, 11.62, 11.45, 10.01, 10.35, 12.83, 13.28, 11.5, 9.17, 10.37, 12.04, 12.04, 13.86, 13.86, 13.81, 13.67, 13.44, 13.44, 13.15, 13.57, 13.62, 13.43, 13.84, 13.84, 13.43, 13.43, 13.19, 13.59, 13.59, 13.7, 13.28, 14.13, 15.41, 14.99, 13.99, 14.84, 15.97, 16.86, 17.43, 16.99, 16.54, 15.65, 15.65, 16.09, 16.09, 15.99, 16.01, 16.03, 15.59, 13.36, 11.59, 10.73, 9.83, 9.39, 9.36, 8.92, 8.47, 8.02, 9.83, 9.39, 8.33, 7.47, 7.28, 6.01, 4.37, 3.32, 3.32, 4.83, 5.46, 6.95, 7.59, -3.8, -5.36, -1.54, -1.47, -1.84, -2.39, -3.25, -2.49, -3.82, -3.53, -1.44, 1.61, 9.8, 18.79, -12.01, -5.95, 4.96, 5.6, 6.17, 7.03, 8.74, 13.27, 15.2, 13.82, 13.75, 12.85, 11.87, 12.35, 12.96, 13.41, 12.04, 12.52, 12.04, 12.14, 11.6, 11.6, 12.27, 12.35, 12.35, 13.86, 13.86, 13.81, 13.81, 13.7, 13.44, 13.44, 13.57, 13.99, 13.62, 13.84, 13.84, 13.84, 13.43, 13.84, 13.84, 13.84, 13.7, 13.7, 14.13, 14.99, 15.41, 14.56, 14.03, 14.4, 15.97, 16.88, 17.35, 17.43, 16.54, 16.09, 15.2, 15.65, 15.65, 15.65, 15.58, 15.59, 13.81, 12.07, 10.73, 10.28, 10.28, 9.81, 8.92, 8.03, 7.58, 9.83, 9.26, 8.06, 7.63, 7.6, 6.63, 6.01, 3.15, 3.15, 3.32, 4.21, 5.63, 6.7, -0.0, -4.46, -3.15, -0.0, -0.0, -0.0, -0.0, -0.0, -2.71, -4.6, -6.17, -0.0, 17.19, 21.2, 19.59, -16.96, 0.0, 6.45, 4.32, 3.93, 3.69, 5.98, 12.0, 14.26, 14.72, 14.26, 12.96, 13.41, 13.01, 10.73, 8.38, 9.77, 9.82, 11.6, 11.2, 12.27, 12.52, 12.52, 12.52, 13.86, 13.86, 13.81, 13.82, 13.25, 13.25, 13.5, 13.57, 13.57, 13.62, 13.84, 13.84, 13.84, 13.84, 13.84, 13.84, 13.86, 13.86, 13.86, 14.28, 15.09, 15.96, 15.96, 14.99, 14.47, 14.84, 16.44, 16.9, 16.92, 16.92, 16.48, 16.03, 15.57, 15.2, 15.2, 15.2, 15.2, 14.75, 12.52, 10.73, 10.28, 9.81, 9.36, 9.36, 8.47, 8.05, 8.05, 7.95, 7.84, 7.74, 7.51, 8.54, 4.14, 2.99, 1.67, 3.15, 3.32, 3.99, 5.46, 4.4, -0.0, -2.06, -2.17, -0.0, -0.0, -0.0, -0.0, -0.0, -0.0, 7.27, 11.06, 14.58, 19.25, 20.57, 19.67, 19.08, 7.14, 7.2, 3.36, 0.0, 1.47, 6.8, 12.0, 14.84, 14.68, 13.41, 10.73, 5.8, 4.98, 6.2, 6.4, 9.42, 11.72, 11.99, 11.45, 11.71, 12.07, 12.07, 13.86, 13.86, 13.37, 13.37, 13.25, 13.25, 13.5, 13.67, 13.99, 13.99, 13.62, 14.03, 13.84, 14.24, 14.24, 13.84, 13.86, 13.86, 13.86, 14.28, 15.09, 15.96, 16.39, 15.96, 15.41, 14.9, 15.27, 16.46, 16.9, 16.92, 16.93, 16.48, 16.47, 15.58, 15.12, 15.2, 15.2, 15.2, 13.86, 11.18, 10.28, 10.25, 9.81, 9.36, 8.92, 8.49, 8.05, 7.97, 7.87, 8.17, 8.0, 6.15, 4.96, 2.09, 2.69, 2.69, 3.15, 3.15, 2.83, 3.87, 5.46, 2.49, -0.0, -0.0, -0.0, -0.0, -0.0, -0.0, 3.82, 7.27, 9.86, 13.39, 14.99, 17.58, 20.46, 19.79, 17.59, -3.77, -16.09, -11.62, 0.0, 2.5, 9.77, 13.03, 13.41, 8.31, 4.98, 4.98, 4.98, 1.9, 5.81, 9.17, 12.27, 12.5, 11.26, 11.62, 11.21, 11.21, 13.41, 13.41, 13.37, 13.37, 13.25, 13.7, 13.5, 13.94, 13.99, 13.99, 13.62, 14.03, 14.03, 14.44, 14.44, 14.03, 13.62, 13.86, 13.86, 14.28, 15.09, 15.53, 15.96, 16.39, 15.96, 15.41, 15.34, 15.78, 16.46, 16.47, 16.48, 16.04, 16.04, 16.31, 16.27, 16.03, 15.58, 15.65, 15.2, 13.86, 11.62, 10.26, 9.81, 9.36, 8.92, 8.49, 8.47, 7.97, 7.87, 7.87, 7.51, 5.98, 3.4, 2.4, 1.55, 1.73, 1.67, 2.99, 2.21, 3.6, 5.46, 5.46, 2.02, -0.0, -0.0, -0.0, -0.0, -0.0, 4.8, 6.87, 10.0, 11.45, 13.43, 15.04, 16.14, 20.16, 19.41, 0.0, -16.54, -5.4, -3.04, -0.0, 15.2, -0.0, -0.0, 2.72, 5.48, 6.2, 4.24, 1.83, 4.55, 8.91, 11.35, 12.65, 12.27, 11.88, 11.72, 11.72, 13.41, 13.41, 13.37, 13.37, 13.25, 13.7, 13.5, 13.94, 14.37, 13.99, 13.62, 14.03, 14.03, 14.44, 14.44, 14.44, 13.62, 13.99, 14.42, 14.7, 14.7, 15.53, 15.96, 15.96, 15.96, 15.96, 15.78, 15.34, 15.39, 15.83, 16.04, 16.04, 15.87, 15.87, 15.83, 15.83, 16.03, 15.58, 15.59, 14.75, 12.96, 10.7, 9.36, 9.36, 9.36, 9.36, 9.36, 8.41, 7.97, 7.4, 7.2, 5.69, 4.05, 2.89, 2.4, 1.84, 1.49, 2.99, 2.09, 3.17, 4.68, 4.98, 2.39, -0.0, -0.0, -0.0, -0.0, -0.0, 7.27, 9.58, 10.88, 11.71, 12.96, 14.3, 15.19, 17.94, 22.5, 16.69, 14.3, -11.03, -2.6, -0.0, -0.0, -0.0, -0.0, -0.0, 1.96, 3.1, 5.63, 4.55, 5.6, 9.17, 10.85, 12.27, 12.65, 13.02, 13.78, 13.78, 13.41, 13.41, 13.37, 13.37, 13.25, 13.72, 13.55, 13.94, 14.37, 14.1, 13.99, 14.03, 14.03, 14.44, 14.44, 14.44, 14.03, 13.99, 14.42, 14.84, 14.84, 15.09, 15.53, 16.05, 15.96, 15.96, 15.53, 15.09, 15.39, 15.39, 15.87, 16.04, 15.91, 15.87, 15.87, 15.83, 15.83, 16.03, 15.59, 15.59, 13.82, 11.14, 9.36, 9.79, 9.64, 8.82, 9.8, 10.25, 9.26, 7.4, 6.67, 5.69, 4.46, 4.05, 2.92, 2.0, 2.69, 2.54, 1.96, 2.99, 4.68, 4.0, 1.16, -0.0, -0.0, -0.0, -0.0, 10.28, -4.2, 9.2, 11.18, 11.99, 12.52, 6.44, 10.12, 16.66, 18.7, 20.53, 16.12, 12.96, -10.28, -0.0, 3.53, 4.23, 4.24, 1.66, -0.0, 3.47, 6.4, 6.88, 6.67, 9.17, 10.23, 11.53, 12.65, 13.39, 13.97, 13.97, 13.41, 13.41, 13.37, 13.37, 13.28, 13.72, 13.72, 13.99, 14.37, 14.1, 14.1, 13.62, 14.03, 14.44, 14.44, 14.44, 14.44, 14.42, 14.42, 14.42, 14.84, 14.75, 15.18, 15.61, 15.61, 15.96, 15.53, 15.09, 15.09, 15.39, 15.43, 15.59, 15.43, 15.43, 15.43, 15.39, 15.83, 15.83, 15.59, 15.59, 14.71, 12.48, 10.25, 8.47, 7.51, 9.21, 11.53, 11.88, 10.78, 9.08, 6.95, 6.23, 5.1, 4.46, 3.4, 2.44, 2.06, 2.18, 1.73, 2.64, 3.55, 3.14, 1.2, -0.0, -1.33, -1.22, 1.14, 3.39, 0.0, 0.0, 10.73, 10.62, 12.38, 12.74, 5.85, 12.26, 17.68, 16.54, 19.57, 16.86, 13.19, -7.59, -0.0, 3.3, 3.11, 4.24, 2.91, 4.87, 7.1, 6.88, 7.69, 8.87, 10.59, 10.99, 12.36, 13.13, 14.39, 14.39, 13.41, 13.41, 13.37, 13.38, 13.28, 13.72, 13.72, 13.99, 14.42, 14.1, 14.1, 14.1, 14.03, 14.44, 14.44, 14.44, 14.95, 14.53, 14.42, 14.42, 14.42, 14.75, 14.75, 15.18, 15.61, 15.53, 15.53, 15.09, 14.66, 14.95, 15.43, 15.59, 14.99, 14.99, 14.95, 14.95, 15.39, 15.39, 15.59, 15.59, 15.15, 13.37, 11.14, 9.36, 8.02, 9.79, 13.15, 13.01, 11.55, 10.01, 7.31, 6.51, 5.38, 4.73, 4.08, 2.96, 2.18, 1.49, 1.36, 1.73, 2.67, 2.06, 1.26, -0.0, -3.49, -4.6, -1.33, 2.95, 7.27, 8.8, 9.39, 8.38, 12.2, 15.27, 14.78, 7.95, 12.66, 14.07, 15.05, 20.09, 17.43, 16.54, 4.24, 4.54, 4.25, 4.3, 4.3, 7.1, 6.88, 5.46, 4.38, 7.69, 9.8, 11.35, 12.17, 13.19, 14.21, 14.21, 13.41, 13.41, 13.38, 13.38, 13.38, 13.72, 13.72, 14.16, 14.42, 14.42, 14.1, 14.1, 13.77, 14.03, 14.44, 14.95, 14.95, 14.95, 14.95, 14.53, 14.42, 14.75, 15.18, 15.18, 15.18, 15.61, 15.53, 14.66, 16.05, 14.07, 14.95, 15.39, 14.99, 14.99, 14.51, 14.95, 14.95, 15.39, 15.59, 15.59, 15.59, 14.26, 11.59, 9.81, 9.83, 10.73, 11.93, 13.07, 11.68, 8.76, 7.31, 6.51, 5.37, 5.08, 5.08, 3.42, 2.44, 1.28, 1.36, 1.88, 1.73, 2.09, -0.0, -0.0, -0.0, -6.32, -6.79, -0.0, 7.59, 8.38, 7.51, 8.18, 12.72, 15.68, 20.72, 8.3, 2.87, 6.44, 11.75, 16.41, 18.78, 17.43, 14.13, 5.46, 4.1, 4.48, 5.2, 5.52, 7.13, 3.68, 2.2, 4.98, 9.48, 11.53, 11.77, 13.2, 13.77, 13.77, 13.41, 13.41, 13.38, 13.38, 13.38, 13.72, 13.72, 14.16, 14.6, 14.42, 14.37, 14.1, 14.1, 13.77, 14.95, 14.95, 14.95, 14.95, 14.95, 14.53, 14.95, 15.18, 15.18, 14.75, 15.18, 15.18, 15.09, 14.66, 14.07, 15.71, 14.07, 14.99, 15.43, 15.43, 14.99, 14.95, 14.95, 14.95, 15.43, 15.59, 15.6, 14.71, 12.48, 10.26, 10.28, 11.18, 11.59, 12.63, 11.11, 8.12, 7.93, 6.79, 5.65, 5.08, 5.08, 4.73, 3.6, 1.73, 1.1, 1.1, 1.1, 1.25, 1.75, -0.0, -0.0, -2.06, -6.01, -2.69, 5.7, 8.38, 8.0, 9.55, 11.18, 15.17, 21.0, 25.93, -3.69, 3.82, 11.99, 15.18, 16.54, 15.58, 15.36, 3.24, -0.0, 1.77, 5.11, 5.77, 5.15, 4.81, 3.14, 3.14, 8.05, 10.47, 12.66, 13.44, 13.57, 13.57, 12.96, 12.96, 13.41, 13.38, 13.38, 13.82, 13.83, 14.27, 14.16, 14.58, 14.37, 14.1, 14.1, 14.1, 14.53, 14.95, 14.95, 14.53, 14.53, 14.95, 14.95, 15.25, 15.18, 14.75, 14.75, 15.18, 15.09, 14.66, 14.95, 14.55, 14.55, 14.55, 14.58, 15.02, 14.99, 14.75, 14.95, 14.95, 15.43, 15.59, 15.6, 15.15, 13.38, 10.7, 10.26, 11.15, 11.49, 12.2, 11.54, 8.97, 8.25, 7.23, 6.31, 5.38, 5.08, 4.47, 4.05, 2.89, 1.73, 1.18, 1.07, -0.0, 1.67, -0.0, -0.0, -0.0, -0.0, -0.0, 3.11, 7.59, 7.27, 9.58, 11.62, 13.36, 19.09, 23.42, 19.67, 6.2, 13.28, 14.9, 16.99, 16.03, 16.22, -0.0, -6.47, -3.93, -0.0, 3.68, 4.81, 4.65, 4.48, 3.96, 6.94, 11.6, 12.3, 13.02, 13.8, 13.8, 12.96, 12.96, 13.41, 13.41, 13.38, 13.38, 13.86, 14.3, 14.27, 14.58, 14.31, 13.99, 14.1, 14.1, 14.53, 14.95, 14.53, 14.53, 14.53, 14.95, 14.95, 15.25, 15.18, 15.18, 14.75, 14.75, 15.18, 14.75, 14.99, 14.99, 14.55, 14.11, 14.14, 14.14, 14.55, 14.75, 14.95, 14.95, 14.99, 15.59, 15.6, 15.15, 13.82, 11.59, 10.26, 10.7, 11.49, 11.76, 11.54, 9.75, 8.63, 7.59, 6.31, 5.68, 5.38, 4.47, 4.05, 3.6, 2.4, 0.58, -0.0, -0.0, -0.0, -0.0, -0.0, -0.0, -0.0, -0.0, 3.49, 5.7, 7.27, 9.46, 11.72, 12.92, 16.09, 17.25, 18.42, 18.78, 15.43, 15.99, 15.58, 16.09, 15.87, 3.79, -5.81, -3.56, -0.0, -0.0, 4.65, 4.48, 5.2, 5.0, 8.22, 10.04, 11.2, 11.87, 13.27, 13.27, 12.96, 12.96, 13.41, 13.41, 13.41, 13.41, 13.86, 13.86, 14.26, 14.11, 14.31, 13.99, 13.99, 14.1, 14.1, 14.53, 14.53, 14.53, 14.53, 14.95, 15.25, 15.25, 15.25, 15.18, 15.18, 14.75, 14.75, 14.75, 14.31, 14.55, 14.55, 14.55, 14.14, 13.7, 14.11, 13.88, 14.23, 14.95, 14.99, 15.15, 15.15, 15.15, 14.27, 12.04, 10.25, 10.25, 10.6, 11.33, 11.45, 10.32, 8.3, 7.31, 6.64, 6.32, 5.38, 5.03, 4.32, 3.4, 2.92, 1.16, 0.58, -0.0, -0.0, -0.0, -0.0, -0.0, -0.0, -0.0, 1.84, 4.4, 6.98, 8.07, 11.72, 12.63, 14.3, 14.9, 15.19, 17.11, 20.32, 21.01, 18.78, 15.2, 13.41, 7.19, -0.0, -0.0, -0.0, 2.37, 4.32, 5.98, 6.97, 6.97, 10.04, 10.41, 11.62, 12.04, 12.14, 12.14, 12.96, 12.96, 13.41, 13.41, 13.41, 13.38, 13.86, 13.86, 14.26, 13.88, 13.57, 13.99, 13.62, 14.1, 14.1, 14.53, 14.53, 14.53, 14.53, 14.95, 15.25, 15.25, 15.25, 15.18, 14.75, 14.75, 14.75, 14.75, 14.31, 14.55, 14.55, 14.55, 14.14, 13.7, 13.67, 13.44, 13.8, 14.51, 14.55, 15.15, 15.15, 15.15, 13.82, 11.57, 8.91, 9.36, 10.14, 10.84, 11.03, 10.2, 9.05, 7.64, 7.31, 6.64, 5.68, 5.03, 4.32, 3.85, 2.23, 1.71, 0.58, -0.0, -0.0, -0.0, -0.0, -0.0, -0.0, -0.0, 1.54, 2.97, 4.88, 6.71, 11.16, 12.56, 14.61, 4.52, 13.88, 16.35, 21.17, 23.07, 19.84, 14.9, 11.91, 8.53, -0.0, -0.0, 2.54, 2.37, 6.44, 8.53, 9.42, 10.73, 10.73, 12.04, 12.3, 12.42, 12.88, 12.14, 12.94, 12.94, 12.94, 13.38, 13.38, 13.38, 13.83, 13.86, 14.14, 13.57, 13.57, 13.2, 13.35, 13.67, 14.1, 14.53, 14.53, 14.53, 14.53, 14.95, 15.25, 15.25, 15.25, 15.18, 15.18, 14.75, 14.75, 14.75, 14.31, 14.55, 14.11, 14.11, 14.14, 13.7, 13.67, 13.44, 13.63, 14.07, 14.55, 14.7, 14.71, 15.15, 13.37, 10.73, 8.46, 10.25, 11.02, 11.28, 10.99, 10.6, 9.08, 8.31, 7.97, 6.64, 5.68, 5.03, 4.87, 4.07, 2.92, 2.23, 1.07, -0.0, -0.0, -0.0, -0.0, -0.0, -0.0, -0.0, 1.26, 2.58, 2.58, 5.98, 10.37, 13.43, 15.99, 2.89, 0.0, 13.65, 20.07, 20.49, 16.44, 13.97, 13.56, 11.6, -0.0, -0.0, 3.25, 4.98, 9.17, 10.73, 11.2, 11.87, 11.87, 12.83, 12.96, 12.52, 12.96, 12.88, 12.94, 12.94, 12.94, 13.38, 13.38, 13.38, 13.41, 13.86, 14.14, 13.57, 13.2, 13.35, 13.35, 13.67, 14.1, 14.1, 14.53, 14.53, 14.61, 14.81, 15.25, 15.25, 15.25, 14.75, 14.75, 14.31, 14.31, 14.31, 14.31, 14.55, 14.11, 14.11, 14.14, 13.7, 13.67, 13.67, 13.63, 13.63, 14.11, 14.26, 14.71, 14.71, 13.41, 10.73, 9.79, 11.46, 13.23, 12.6, 11.8, 11.38, 10.56, 9.42, 7.9, 7.27, 5.68, 5.03, 4.87, 4.07, 3.4, 2.89, 1.14, -0.0, -0.59, -0.0, -0.0, -0.0, -0.0, -0.0, 1.26, 2.58, 2.7, 5.7, 9.62, 12.27, 13.95, 16.99, -2.8, 1.42, 13.26, 15.2, 8.85, 12.57, 15.93, 15.27, 11.6, -0.0, 4.52, 10.12, 12.45, 12.79, 12.79, 12.96, 12.96, 12.96, 12.96, 12.91, 12.35, 12.96, 12.94, 12.94, 12.94, 12.94, 13.41, 13.41, 13.41, 13.83, 13.72, 13.67, 13.35, 13.35, 13.35, 13.67, 14.1, 14.1, 14.53, 14.61, 14.61, 14.81, 14.81, 14.81, 15.25, 15.18, 14.75, 14.31, 14.31, 14.31, 14.31, 14.55, 14.11, 13.67, 13.7, 13.7, 13.67, 13.67, 13.63, 13.63, 13.81, 13.81, 14.26, 14.71, 13.86, 11.62, 10.73, 12.9, 13.88, 13.44, 12.62, 11.77, 11.31, 9.77, 8.22, 7.59, 5.98, 5.03, 5.31, 4.07, 3.6, 2.89, 1.78, -0.0, -0.0, -0.0, -0.0, -0.0, -0.0, -0.0, -0.0, 2.58, 3.87, 5.46, 9.08, 10.19, 12.09, 14.37, 17.59, -4.66, -5.64, -5.6, 2.89, 12.9, 16.48, 18.48, 14.99, 12.72, 12.79, 13.88, 13.41, 12.96, 12.96, 12.79, 12.3, 12.66, 12.51, 12.58, 12.14, 12.14, 12.96, 12.96, 12.96, 12.96, 12.96, 13.41, 13.38, 13.83, 13.59, 13.25, 12.93, 13.35, 13.35, 13.67, 13.67, 14.1, 14.18, 14.61, 14.18, 14.86, 14.81, 14.81, 14.81, 14.81, 14.75, 14.31, 14.31, 14.31, 14.55, 14.55, 14.11, 13.7, 13.7, 13.7, 13.23, 13.67, 13.63, 13.63, 13.81, 13.82, 14.26, 14.3, 13.86, 12.07, 11.62, 12.47, 13.88, 13.15, 11.97, 11.38, 10.94, 9.42, 7.9, 6.95, 5.31, 5.03, 4.56, 4.07, 3.6, 2.89, 1.78, -0.0, -0.55, -0.0, -0.0, -0.0, -0.0, -0.0, -0.0, 1.54, 4.4, 5.46, 7.9, 8.58, 10.73, 12.29, 17.53, 22.36, -13.28, -5.8, 6.8, 15.54, 18.9, 20.93, 17.78, 13.15, 13.86, 13.86, 13.41, 12.79, 12.46, 12.46, 11.92, 11.85, 12.18, 11.39, 11.39, 11.39, 12.96, 12.96, 12.96, 12.96, 12.94, 13.38, 13.38, 13.31, 13.59, 13.25, 12.93, 12.93, 13.35, 13.67, 13.67, 14.18, 14.18, 14.18, 14.42, 14.86, 14.81, 14.81, 14.81, 14.81, 14.31, 13.88, 14.31, 14.31, 14.55, 14.55, 14.11, 13.7, 13.7, 13.25, 13.23, 13.23, 13.63, 13.8, 13.81, 13.82, 14.26, 14.3, 13.86, 12.52, 12.07, 12.47, 13.23, 12.58, 11.45, 10.58, 9.16, 8.73, 7.68, 6.32, 5.64, 5.03, 4.32, 3.85, 3.09, 2.73, 1.69, -0.0, -0.57, -1.14, -0.0, -0.0, -0.0, -0.0, -0.0, 1.47, 4.2, 5.86, 6.3, 8.58, 9.97, 11.77, 14.07, 17.8, 19.39, 16.48, 14.79, 17.39, 19.77, 21.01, 19.01, 13.31, 13.41, 11.99, 12.45, 12.46, 12.04, 11.5, 11.26, 11.6, 11.2, 10.8, 10.8, 10.8, 12.52, 12.52, 12.94, 12.94, 12.94, 12.94, 13.38, 13.31, 13.15, 13.25, 12.93, 12.93, 13.35, 13.67, 13.67, 14.18, 14.18, 14.18, 14.42, 14.42, 14.81, 14.81, 14.81, 14.81, 14.75, 14.31, 14.31, 14.55, 14.55, 14.55, 14.11, 14.14, 13.7, 13.82, 13.23, 13.23, 13.36, 13.81, 13.81, 13.82, 14.3, 14.3, 13.86, 12.96, 12.07, 12.03, 12.35, 12.14, 10.92, 9.42, 8.06, 7.69, 6.35, 6.35, 6.01, 5.03, 4.36, 3.64, 3.14, 2.92, 1.69, 0.56, -0.56, -0.55, -0.0, -0.0, -0.0, -0.0, -0.0, 1.47, 4.4, 4.0, 6.01, 8.23, 9.58, 10.8, 12.39, 13.83, 15.03, 16.55, 18.84, 20.98, 21.17, 21.48, 19.34, 14.84, 12.96, 10.73, 10.12, 11.2, 11.99, 9.42, 10.55, 10.01, 10.55, 10.16, 10.16, 10.16, 12.49, 12.49, 12.49, 12.94, 12.94, 12.94, 13.38, 13.31, 13.11, 13.25, 12.93, 12.93, 13.67, 13.67, 13.75, 14.18, 14.18, 14.42, 14.42, 14.42, 14.37, 14.37, 14.81, 14.81, 14.37, 14.31, 14.31, 14.55, 14.55, 14.55, 14.11, 14.14, 13.82, 13.82, 13.36, 13.36, 13.36, 13.81, 13.81, 13.82, 13.86, 14.3, 13.86, 13.41, 12.52, 12.03, 12.35, 12.14, 11.34, 9.81, 8.82, 7.32, 6.35, 6.01, 5.69, 5.35, 4.61, 3.64, 2.96, 2.26, 1.71, 0.56, -0.0, -1.14, -0.57, -0.0, -0.0, -0.0, -0.0, -0.0, 2.83, 4.2, 6.3, 8.37, 9.77, 10.35, 11.2, 12.62, 12.27, 12.62, 14.88, 20.79, 23.72, 22.69, 22.43, 16.46, 12.96, 10.37, 7.78, 10.47, 9.66, 6.44, 8.22, 8.93, 9.46, 9.09, 9.09, 9.09, 12.49, 12.49, 12.49, 12.94, 12.94, 12.94, 12.94, 13.38, 13.11, 13.25, 12.93, 12.93, 13.25, 13.67, 13.75, 13.75, 13.99, 13.99, 13.99, 13.99, 14.37, 14.37, 14.37, 14.81, 14.81, 14.31, 14.11, 14.55, 14.55, 14.55, 14.58, 14.26, 14.26, 13.82, 13.37, 13.36, 13.36, 13.36, 13.81, 13.82, 13.86, 13.86, 13.86, 13.41, 12.96, 12.03, 12.35, 12.14, 11.76, 10.58, 9.2, 8.05, 7.06, 6.01, 5.35, 5.35, 4.36, 3.91, 2.96, 2.26, 1.71, 0.57, -0.0, -1.12, -1.09, -0.0, -0.0, -0.0, -0.0, -0.0, 1.47, 2.97, 6.3, 8.15, 8.94, 9.17, 10.56, 11.42, 10.91, 10.91, 13.27, 17.98, 21.59, 23.95, 25.03, 17.88, 14.9, 10.37, 7.78, 9.66, 9.67, 7.9, 7.9, 7.59, 7.59, 8.38, 8.38, 8.38, 12.49, 12.49, 12.49, 12.49, 12.94, 12.94, 12.94, 13.29, 13.11, 12.82, 13.25, 13.25, 13.25, 13.75, 13.75, 13.99, 13.99, 13.99, 13.99, 13.99, 14.42, 14.37, 14.81, 14.81, 14.81, 14.58, 14.14, 13.7, 14.14, 14.14, 14.58, 14.71, 14.26, 13.82, 13.37, 13.36, 13.36, 13.36, 13.36, 13.37, 13.41, 13.86, 13.86, 13.41, 12.92, 12.47, 12.79, 12.14, 11.76, 10.58, 9.2, 8.82, 7.41, 7.06, 6.01, 5.35, 4.67, 3.91, 2.96, 2.44, 1.73, 0.57, -0.0, -1.67, -1.71, -1.32, -0.0, -0.0, -0.0, -0.0, -0.0, 3.49, 5.7, 6.98, 7.59, 8.41, 9.52, 10.12, 10.28, 10.63, 11.9, 15.01, 19.36, 20.09, 26.82, 14.54, 14.51, 10.12, 9.66, 8.53, 8.22, 11.18, 7.59, 7.27, 7.59, 8.58, 8.58, 8.58, 12.49, 12.49, 12.49, 12.49, 12.52, 12.96, 12.96, 13.28, 13.07, 12.82, 13.25, 13.25, 13.25, 13.75, 13.75, 13.99, 13.99, 13.99, 13.99, 13.99, 13.99, 14.37, 14.37, 14.58, 14.58, 14.58, 14.14, 13.7, 13.7, 13.7, 13.7, 14.26, 14.26, 13.82, 13.37, 13.36, 13.36, 13.36, 13.36, 13.41, 13.41, 13.41, 13.86, 13.41, 12.92, 12.47, 12.79, 12.58, 11.34, 10.58, 9.6, 8.82, 8.18, 7.41, 6.01, 5.69, 4.94, 4.14, 3.4, 2.29, 1.73, 0.58, -0.0, -1.67, -2.23, -1.73, -0.0, -0.0, -0.0, -0.0, -0.0, -0.0, 3.11, 5.98, 6.44, 7.9, 8.69, 9.42, 9.26, 9.9, 11.28, 12.26, 15.62, 19.41, 22.32, -10.2, 0.0, 10.73, 11.18, 11.62, 11.18, 10.73, 10.28, 7.27, 7.27, 7.27, 7.27, 7.27, 12.49, 12.05, 12.49, 12.52, 12.52, 12.96, 12.96, 12.83, 13.07, 12.82, 13.25, 13.25, 13.75, 13.75, 13.55, 13.55, 13.55, 13.55, 13.55, 13.99, 13.99, 14.58, 14.58, 14.58, 14.58, 14.58, 14.14, 14.14, 13.7, 13.25, 13.37, 13.37, 13.82, 13.82, 13.37, 12.92, 12.92, 12.92, 12.92, 12.96, 13.41, 13.41, 13.41, 13.41, 12.92, 12.92, 12.79, 12.14, 11.34, 10.92, 9.6, 9.2, 8.43, 7.06, 6.35, 6.01, 4.94, 4.46, 3.4, 3.0, 1.76, 1.18, -0.0, -1.14, -2.37, -2.51, -0.89, -0.0, -0.0, -0.0, 1.75, -0.0, -0.0, 3.82, 6.24, 7.06, 7.9, 8.69, 8.97, 9.96, 10.91, 11.28, 11.9, 18.4, 21.7, -19.29, -16.09, 10.28, 10.18, 10.79, 10.4, 11.18, 10.73, 0.0, 7.27, 6.95, 6.95, 6.95, 12.05, 12.07, 12.07, 12.52, 12.52, 12.52, 12.94, 12.83, 13.07, 12.82, 13.25, 13.25, 13.99, 13.99, 13.55, 13.11, 13.11, 13.55, 14.16, 14.16, 14.16, 14.14, 14.58, 14.58, 14.58, 14.58, 14.14, 14.14, 13.7, 13.7, 13.37, 13.37, 13.37, 13.37, 12.93, 12.92, 12.92, 12.92, 12.92, 12.96, 12.96, 12.96, 13.41, 13.41, 12.92, 12.92, 12.35, 12.14, 11.64, 10.92, 9.96, 8.8, 8.8, 7.41, 6.73, 5.69, 5.3, 4.22, 4.22, 3.2, 1.76, 1.1, -0.0, -0.58, -2.37, -2.96, -2.35, -1.01, -0.0, 1.14, 2.69, 3.32, -0.0, -0.0, 4.6, 6.24, 7.06, 7.9, 8.69, 9.34, 10.9, 10.91, 11.83, 17.5, -20.46, -21.01, -16.12, -8.22, -0.0, 4.8, 6.98, 8.94, 0.0, -7.59, 0.0, 0.0, 0.0, 0.0, 12.07, 12.07, 12.07, 12.07, 12.52, 12.52, 12.49, 12.81, 12.63, 12.82, 13.25, 13.5, 13.99, 13.55, 13.11, 13.11, 13.55, 13.72, 14.16, 14.16, 14.16, 14.14, 14.58, 14.58, 14.58, 14.14, 14.14, 13.7, 13.7, 13.82, 13.37, 13.37, 13.37, 13.37, 12.92, 12.92, 12.92, 12.47, 12.47, 12.96, 12.96, 12.96, 12.96, 12.96, 12.92, 12.92, 12.35, 12.35, 11.64, 10.92, 10.08, 9.55, 9.2, 7.81, 6.73, 6.39, 5.3, 4.67, 3.97, 3.2, 2.49, 1.2, -0.0, -0.55, -1.71, -2.75, -3.2, -2.64, -1.07, -0.0, 2.33, 3.52, 3.52, 1.47, 1.93, 3.87, 6.44, 7.42, 8.35, 8.73, 9.67, 10.9, 13.19, 19.93, -22.0, -19.51, -12.33, -6.2, -2.82, -0.0, 5.95, 8.22, 11.62, 0.0, 0.0, 0.0, 0.0, 0.0, 12.07, 12.07, 12.07, 12.07, 12.52, 12.52, 12.48, 12.63, 12.63, 13.07, 13.5, 13.5, 13.55, 13.55, 13.11, 13.28, 13.72, 13.72, 13.72, 14.16, 14.16, 14.14, 14.58, 14.58, 14.58, 14.14, 14.14, 13.7, 13.82, 13.37, 13.36, 13.36, 13.36, 13.37, 12.92, 12.47, 12.47, 12.47, 12.52, 12.52, 12.96, 12.96, 12.96, 12.96, 12.92, 12.92, 12.35, 12.35, 11.71, 11.21, 10.08, 9.55, 8.8, 7.81, 7.15, 6.39, 6.01, 5.3, 4.22, 3.47, 2.49, 1.93, 0.61, -0.0, -1.18, -2.26, -2.77, -2.18, -2.4, -0.0, -0.0, 1.4, 2.46, 2.58, -0.0, 1.39, 4.18, 6.15, 7.59, 8.38, 9.04, 10.29, 21.01, 20.7, -23.69, -17.25, -6.31, -0.0, -0.0, 1.64, 5.32, 8.22, 9.97, 11.62, 0.0, 0.0, 0.0, 0.0, 12.07, 12.07, 12.07, 12.07, 12.07, 12.52, 12.48, 12.63, 12.63, 13.07, 13.07, 13.11, 13.11, 13.11, 12.83, 13.28, 13.72, 13.72, 13.72, 14.16, 14.16, 14.14, 14.14, 14.14, 14.14, 14.26, 13.82, 13.82, 13.82, 13.37, 12.92, 13.36, 13.36, 13.36, 12.92, 12.47, 12.47, 12.47, 12.07, 12.52, 12.52, 12.52, 12.96, 12.96, 12.92, 12.47, 12.35, 12.35, 12.14, 11.21, 10.35, 9.66, 8.8, 8.21, 7.44, 6.79, 6.39, 5.3, 4.56, 3.69, 2.9, 2.06, 1.2, -0.0, -0.56, -1.73, -2.75, -2.8, -1.96, -1.25, -0.0, 1.67, 1.75, 1.54, -0.0, -0.0, 2.39, 4.99, 7.18, 7.9, 8.31, 9.62, 18.4, 25.71, 25.48, -18.66, -6.34, -0.0, 1.39, 3.77, 6.71, 9.17, 9.82, 10.4, 11.62, 0.0, 0.0, 0.0, 11.62, 11.62, 12.07, 12.07, 12.07, 12.07, 12.48, 12.63, 12.2, 12.63, 12.63, 12.68, 12.68, 12.83, 12.83, 13.28, 13.72, 13.72, 13.72, 13.72, 14.16, 14.14, 14.14, 14.26, 14.26, 14.26, 13.82, 13.81, 13.36, 13.36, 12.92, 13.36, 13.36, 13.36, 12.92, 12.47, 12.47, 12.47, 12.07, 12.07, 12.52, 12.52, 12.52, 12.52, 12.47, 12.35, 12.35, 12.35, 12.35, 11.28, 10.35, 9.92, 9.13, 8.21, 7.82, 6.79, 6.39, 5.69, 4.56, 4.56, 3.69, 2.9, 1.32, -0.0, -0.0, -1.1, -2.26, -2.77, -2.36, -1.25, -0.0, -0.0, -0.0, 1.47, 1.54, -0.0, -0.0, 4.88, 6.77, 7.59, 7.97, 11.28, 14.7, 24.13, 26.92, -20.36, -9.61, -0.0, 3.11, 4.8, 7.27, 8.35, 10.04, 10.62, 11.62, 0.0, 0.0, 0.0, 11.62, 11.62, 11.62, 12.07, 11.62, 12.07, 11.95, 12.2, 12.2, 12.2, 12.63, 12.83, 12.83, 12.83, 12.83, 13.28, 13.72, 13.72, 13.72, 13.72, 13.72, 14.26, 14.26, 14.26, 14.26, 13.82, 13.81, 13.36, 13.36, 13.36, 12.92, 13.36, 13.36, 12.92, 12.92, 12.47, 12.47, 12.03, 12.03, 12.07, 12.52, 12.52, 12.52, 12.48, 12.47, 12.35, 12.35, 12.37, 12.37, 11.46, 10.41, 9.92, 9.13, 8.58, 8.21, 7.15, 6.79, 6.01, 5.69, 4.56, 4.03, 2.9, 2.26, 0.71, -0.0, -0.61, -1.76, -3.0, -2.36, -2.4, -0.0, -0.0, -0.0, -0.0, 1.47, 1.47, -0.0, 3.65, 5.72, 6.77, 8.73, 10.66, 13.19, 19.45, 28.15, 21.59, -12.01, -1.58, 3.82, 6.77, 7.59, 9.16, 10.4, 11.37, 11.46, 5.2, 5.2, 5.2, 11.62, 11.62, 11.62, 11.62, 11.62, 12.07, 11.95, 11.93, 11.76, 12.2, 12.37, 12.83, 12.83, 12.83, 12.83, 13.28, 13.28, 13.82, 13.82, 13.82, 13.82, 14.26, 14.26, 14.26, 13.82, 13.81, 13.81, 13.36, 13.36, 12.92, 12.92, 13.36, 13.36, 12.92, 12.47, 12.47, 12.03, 12.03, 12.03, 12.07, 12.52, 12.52, 12.52, 12.03, 12.03, 11.91, 12.37, 12.37, 12.37, 11.46, 10.58, 9.92, 9.42, 9.13, 8.21, 7.82, 6.79, 6.11, 5.69, 4.95, 4.29, 3.79, 3.2, 1.65, -0.0, -0.0, -1.23, -2.32, -2.54, -2.54, -1.32, -0.0, -0.0, -0.0, -0.0, 1.47, 1.75, -0.0, 4.83, 7.74, 9.16, 10.23, 12.29, 18.05, 25.45, 21.89, -0.0, -1.89, 5.08, 7.59, 8.38, 9.81, 10.68, 11.87, 11.4, 9.67, 9.67, 9.67, 11.18, 11.18, 11.18, 11.62, 11.62, 11.62, 11.51, 11.93, 11.93, 12.37, 12.37, 12.83, 12.83, 12.83, 12.93, 13.38, 13.82, 13.38, 13.82, 13.82, 13.82, 14.26, 14.26, 14.26, 13.81, 13.81, 13.36, 13.36, 13.36, 12.92, 12.92, 13.36, 13.36, 12.92, 12.47, 12.47, 12.03, 12.03, 12.07, 12.07, 12.07, 12.07, 12.07, 12.03, 12.03, 12.03, 12.03, 12.03, 11.93, 11.05, 10.58, 9.92, 9.85, 9.13, 8.58, 8.21, 7.58, 6.44, 6.11, 5.37, 4.95, 4.42, 4.03, 2.67, 1.84, -0.0, -0.74, -1.45, -2.9, -3.2, -2.51, -1.67, -1.58, -1.58, -0.0, -0.0, 1.75, 2.28, 4.4, 7.27, 8.93, 10.4, 12.56, 16.7, 23.6, 21.25, 12.64, 2.57, 6.95, 9.3, 9.3, 10.15, 11.18, 11.8, 11.91, 11.84, 11.84, 11.84, 11.18, 11.18, 11.18, 11.18, 11.18, 11.6, 11.49, 11.93, 11.93, 12.37, 12.37, 12.39, 12.93, 12.93, 12.93, 13.38, 13.38, 13.38, 13.38, 13.82, 13.82, 13.82, 14.26, 14.26, 13.81, 13.36, 13.36, 13.36, 12.96, 12.92, 12.92, 13.36, 13.36, 12.92, 12.47, 12.47, 12.03, 12.03, 12.07, 12.07, 12.07, 12.07, 12.07, 12.03, 11.58, 11.58, 11.59, 12.03, 11.49, 10.6, 10.58, 9.92, 9.92, 9.85, 9.13, 8.58, 7.82, 7.2, 6.79, 6.11, 5.77, 4.95, 4.42, 4.68, 3.17, 1.84, -0.0, -0.0, -1.73, -2.67, -2.99, -1.75, -1.58, -2.83, -1.95, -0.0, -0.0, 2.28, 1.84, 5.06, 8.58, 10.0, 12.04, 15.52, 20.69, 21.2, 13.41, 8.68, 8.78, 10.25, 11.66, 10.94, 11.03, 11.86, 12.41, 11.95, 11.95, 11.95, 11.18, 11.18, 11.18, 11.18, 11.18, 11.59, 11.49, 11.93, 11.93, 12.37, 12.48, 12.48, 12.93, 12.93, 12.93, 13.38, 13.41, 13.41, 13.41, 13.86, 13.86, 13.86, 13.86, 13.86, 13.86, 13.41, 13.41, 13.41, 12.96, 12.96, 12.96, 13.41, 12.96, 12.52, 12.47, 12.47, 12.07, 12.07, 11.62, 11.62, 12.07, 12.07, 11.59, 11.58, 11.14, 11.14, 11.14, 11.14, 11.14, 10.6, 10.14, 9.97, 9.92, 9.92, 9.13, 8.99, 8.58, 7.82, 7.2, 6.82, 6.11, 6.11, 5.69, 5.69, 5.15, 3.77, 1.96, 1.07, -0.0, -1.07, -2.09, -1.96, -1.1, -2.83, -1.95, -2.06, -0.0, -0.0, 1.84, 5.06, 7.9, 10.17, 10.68, 13.64, 17.26, 19.19, 14.53, 9.61, 9.8, 11.25, 12.05, 12.81, 12.29, 11.58, 11.84, 12.07, 12.07, 12.07, 11.18, 11.18, 11.18, 11.18, 11.18, 11.59, 11.49, 11.93, 11.93, 12.37, 12.48, 12.48, 12.93, 12.93, 12.93, 13.38, 13.41, 13.41, 13.41, 13.86, 13.86, 13.86, 13.86, 13.86, 13.86, 13.41, 13.41, 13.41, 12.96, 12.96, 12.96, 13.41, 12.96, 12.52, 12.47, 12.47, 12.07, 12.07, 11.62, 11.62, 12.07, 12.07, 11.59, 11.58, 11.14, 11.14, 11.14, 11.14, 11.14, 10.6, 10.14, 9.97, 9.92, 9.92, 9.13, 8.99, 8.58, 7.82, 7.2, 6.82, 6.11, 6.11, 5.69, 5.69, 5.15, 3.77, 1.96, 1.07, -0.0, -1.07, -2.09, -1.96, -1.1, -2.83, -1.95, -2.06, -0.0, -0.0, 1.84, 5.06, 7.9, 9.38, 10.73, 12.04, 13.99, 15.47, 14.26, 10.83, 10.17, 10.75, 12.4, 13.39, 13.64, 13.11, 11.37, 11.18, 11.18, 11.18]}, {"header": {"dx": 0.06612293990616946, "dy": 0.0552356325346848, "nx": 98, "ny": 59, "la1": 35.046912555036876, "la2": 31.78801023549047, "lo1": -121.43107172385933, "lo2": -114.95102361305473, "refTime": "2026041110", "parameterCategory": 1, "parameterNumber": 3}, "data": [6.2, 6.64, 7.44, 7.68, 8.2, 8.51, 9.8, 10.77, 11.9, 13.7, 13.27, 11.84, 11.91, 11.18, 10.28, 10.73, 10.96, 9.97, 10.73, 11.18, 11.18, 11.28, 9.96, 9.6, 11.03, 11.45, 11.45, 11.62, 11.62, 12.07, 11.87, 11.2, 10.8, 11.18, 6.95, 0.0, 0.0, 0.0, 0.0, 0.0, 3.25, 2.71, 0.0, 0.0, 0.0, 0.0, 0.0, 11.53, 14.88, 14.36, 10.73, 9.8, 9.13, 9.31, 10.12, 11.09, 9.48, 8.38, 7.13, 5.15, 5.15, 6.2, 6.9, 6.9, 6.0, 6.0, 4.38, 4.24, 3.1, 3.39, 2.4, 0.0, 0.0, -3.9, -8.68, -8.85, -8.31, -10.79, -11.53, -7.24, -9.3, -9.96, -9.13, -8.48, -9.03, -9.33, -8.49, -8.49, -8.82, -9.32, -9.08, -9.36, -9.17, -8.67, -8.1, -7.43, -5.77, -2.6, 6.2, 6.2, 7.44, 7.44, 7.68, 8.2, 9.5, 10.12, 12.27, 13.19, 12.85, 13.01, 11.46, 10.73, 11.62, 11.18, 9.55, 11.03, 10.6, 10.08, 12.07, 11.62, 11.28, 11.21, 9.96, 10.6, 11.62, 11.18, 11.18, 11.62, 13.86, 15.2, 14.3, 10.73, 6.64, 0.0, 0.0, 0.0, 0.0, 0.0, 3.82, 4.1, 0.0, 0.0, -4.01, 0.0, 10.91, 17.02, 15.2, 11.28, 9.48, 8.31, 6.73, 7.34, 8.66, 9.8, 11.09, 7.13, 6.2, 5.15, 6.2, 8.05, 10.37, 9.17, 7.44, 6.2, 6.2, 5.15, 3.1, 1.94, 2.4, 0.0, 0.0, 0.0, -4.81, -8.18, -7.69, -10.79, -11.53, -7.24, -9.3, -9.96, -9.13, -8.48, -9.03, -9.33, -8.49, -8.49, -8.82, -9.32, -9.08, -9.36, -9.17, -8.67, -8.1, -7.43, -5.77, -2.6, 5.33, 6.2, 6.64, 7.44, 7.68, 8.46, 9.8, 10.43, 12.0, 12.9, 11.62, 10.28, 11.91, 11.46, 10.73, 10.52, 10.84, 10.4, 10.0, 11.45, 10.41, 11.18, 11.18, 12.04, 11.5, 9.2, 10.18, 10.28, 10.18, 11.4, 12.96, 14.75, 16.54, 13.15, 8.22, 0.0, 0.0, 0.0, 0.0, 0.0, 0.0, 0.0, -3.9, -3.51, -4.77, 0.0, 17.59, 15.69, 11.9, 9.17, 6.51, 5.15, 4.38, 5.46, 7.78, 9.48, 9.48, 7.13, 6.2, 5.15, 9.48, 11.99, 10.37, 9.17, 7.44, 8.85, 9.49, 8.68, 7.13, 2.5, -4.12, -4.12, 0.0, 0.0, 0.0, -3.58, -6.4, -13.86, -5.15, -5.98, -7.59, -7.87, -8.72, -7.67, -8.63, -9.97, -9.32, -8.94, -9.29, -10.55, -10.82, -10.3, -9.97, -9.48, -8.61, -5.98, 0.0, 5.46, 5.33, 5.33, 6.85, 6.64, 7.68, 7.92, 9.49, 10.75, 11.44, 11.9, 11.62, 10.28, 11.61, 11.02, 11.18, 11.18, 11.28, 10.04, 9.67, 10.4, 10.41, 10.73, 11.62, 11.28, 11.21, 10.73, 9.2, 9.83, 9.75, 10.0, 11.21, 12.96, 13.41, 13.59, 11.16, 5.4, 3.96, 0.0, 0.0, 0.0, -3.9, -3.68, -3.77, -3.59, 0.0, 11.7, 11.6, 11.62, 9.77, 5.8, 3.41, 2.4, 2.63, 3.68, 9.48, 9.17, 6.0, 4.98, 5.15, 6.2, 9.48, 11.6, 10.73, 9.48, 10.99, 11.77, 12.29, 11.7, 10.25, 8.58, 0.0, -16.12, -15.19, 0.0, 0.0, -2.89, -9.8, -9.48, -8.05, -7.19, -6.95, -8.43, -8.05, -8.82, -8.38, -9.96, -10.52, -9.39, -10.91, -12.07, -11.76, -10.82, -10.12, -8.53, -3.39, 6.95, 7.59, 5.2, 4.38, 5.33, 6.85, 6.85, 7.68, 7.92, 9.49, 10.1, 11.44, 11.9, 11.2, 10.28, 11.03, 10.96, 10.73, 11.62, 11.4, 10.8, 10.04, 10.8, 11.87, 11.18, 10.73, 12.07, 10.84, 11.84, 11.21, 11.28, 11.62, 9.97, 8.93, 9.3, 11.62, 11.18, 9.08, 6.71, 5.2, 3.14, 0.0, 0.0, 0.0, 4.23, 0.0, 0.0, 3.14, 6.7, 10.8, 11.2, 8.1, 4.1, 2.13, 1.08, 1.43, 5.8, 9.17, 9.48, 6.0, 4.98, 5.15, 7.44, 10.79, 11.6, 11.12, 12.39, 13.48, 14.39, 14.33, 14.33, 14.22, 13.35, 10.27, 4.12, -16.54, 0.0, 3.51, 0.0, -13.86, -9.17, -8.85, -8.05, -6.4, -6.95, -6.95, -7.27, -8.59, -9.3, -11.06, -10.65, -12.6, -12.45, -10.94, -9.42, -9.27, 0.0, 9.21, 9.97, 5.2, 2.37, 4.38, 5.73, 5.92, 6.85, 6.85, 7.92, 8.72, 10.1, 10.75, 11.9, 10.55, 9.8, 10.6, 10.41, 11.18, 11.18, 11.62, 10.8, 9.66, 8.85, 10.41, 10.8, 12.96, 12.96, 12.52, 12.27, 11.87, 12.3, 12.27, 12.07, 9.33, 4.4, 7.27, 10.04, 8.38, 6.43, 5.8, 3.36, 0.0, 0.0, 16.09, 13.88, 10.01, 7.51, 5.6, 6.7, 8.22, 8.85, 3.96, 1.25, 0.0, 0.0, 1.77, 7.19, 7.44, 6.0, 3.14, 3.25, 6.0, 9.48, 11.2, 11.21, 12.98, 13.7, 14.13, 14.94, 15.19, 15.06, 15.14, 14.7, 13.41, 10.22, 12.33, 12.01, 10.39, 10.19, -6.8, -8.31, -7.51, -7.82, -7.27, -7.59, -8.24, -8.24, -9.09, -10.62, -11.57, -14.07, -13.84, -12.79, -10.41, -10.01, -7.9, 8.67, 9.83, 6.45, 0.0, 2.45, 4.38, 4.74, 5.73, 5.92, 7.06, 7.28, 8.72, 10.1, 10.75, 10.09, 9.77, 9.4, 9.2, 9.2, 11.62, 11.18, 12.07, 12.14, 8.85, 6.94, 7.19, 7.93, 10.43, 14.75, 14.75, 13.88, 14.75, 12.79, 11.99, 10.0, 10.18, 9.39, 9.83, 8.55, 5.98, 7.69, 7.1, 5.46, 3.25, 13.41, 12.79, 12.96, 10.73, 8.38, 7.13, 6.44, 5.6, 2.13, 0.0, -1.55, -1.55, 0.0, 3.14, 7.19, 7.19, 3.14, 0.0, 0.0, 4.1, 10.41, 11.71, 12.86, 13.59, 14.03, 13.99, 14.71, 14.85, 14.13, 13.15, 12.01, 11.11, 9.8, 9.54, 10.98, 8.51, 8.74, -0.0, -5.48, -6.9, -10.12, -8.59, -9.66, -9.67, -9.67, -10.79, -11.02, -14.3, -15.59, -14.23, -12.45, -10.8, -10.79, 6.64, 8.8, 11.18, 0.0, 0.0, 2.54, 3.25, 4.74, 4.89, 6.1, 6.29, 7.28, 8.72, 8.72, 9.8, 9.76, 9.1, 8.58, 8.82, 10.38, 11.87, 10.84, 12.07, 12.96, 12.3, 5.8, 6.0, 7.44, 7.44, 4.95, 7.0, 14.75, 0.0, 11.06, 13.19, 11.99, 10.8, 10.8, 11.2, 8.85, 6.98, 5.6, 3.56, 2.33, 1.52, 2.82, 12.96, 13.86, 13.39, 10.46, 11.38, 7.44, 5.08, 0.0, -3.56, -2.2, 0.0, 0.0, 0.0, 5.6, 3.96, 0.0, 0.0, 0.0, 0.0, 11.62, 11.18, 12.88, 13.79, 13.44, 13.75, 13.59, 12.36, 10.59, 8.77, 5.56, 6.1, 5.96, 5.85, 5.23, 1.73, 2.5, 16.09, -0.0, -8.31, -12.04, -11.45, -10.8, -10.2, -10.73, -11.76, -12.93, -13.86, -14.25, -13.15, -12.04, -11.84, -0.0, 9.67, 10.8, 0.0, 0.0, 0.0, 2.54, 3.36, 4.89, 4.89, 5.04, 6.29, 7.82, 7.82, 8.72, 8.78, 9.42, 8.58, 9.2, 11.6, 11.6, 11.62, 12.14, 12.58, 12.71, 13.41, 12.96, 13.41, 13.41, 9.48, 4.52, -0.0, -0.0, -9.83, -0.0, 15.65, 11.53, 11.53, 12.65, 12.65, 9.8, 6.7, 3.68, 0.0, -2.6, 0.0, 0.0, 8.85, 12.79, 10.12, 9.17, 6.21, 6.16, 5.28, 4.38, 3.68, 3.25, 7.13, 8.53, 0.0, -8.53, 0.0, 0.0, 0.0, 0.0, 11.18, 11.62, 12.07, 13.41, 12.86, 12.89, 11.88, 8.58, 4.95, 2.0, 0.0, 0.0, 1.07, 2.11, 1.5, 0.0, -2.35, 0.0, 0.0, -4.38, -9.8, -14.79, -15.65, -11.72, -11.34, -11.03, -11.46, -12.03, -12.52, -12.96, -11.62, -11.45, -0.0, 11.45, 9.67, 8.85, 0.0, 0.0, 0.0, 2.45, 3.47, 3.76, 5.04, 5.04, 6.29, 6.8, 7.82, 8.72, 8.78, 8.24, 8.22, 9.82, 10.48, 12.03, 11.88, 12.45, 14.03, 14.47, 14.3, 12.96, 12.52, 12.96, 13.86, 14.3, -0.0, -0.0, -0.0, -0.0, 0.0, 6.4, 0.0, 0.0, 0.0, 0.0, 3.82, 2.1, 0.0, -1.84, 0.0, 3.14, 7.78, 9.17, 6.97, 6.44, 4.8, 4.72, 4.9, 7.19, 7.69, 7.2, 7.96, 9.96, 11.45, -8.22, -9.3, -9.3, -8.22, -7.9, 11.62, 11.18, 12.96, 13.79, 14.55, 12.72, 9.8, 0.0, -4.05, -4.24, -5.19, -3.79, -1.2, 0.0, 0.0, 0.0, 0.0, 0.0, -11.6, -8.85, -9.17, -11.8, -16.91, -16.09, -12.79, -12.14, -11.91, -11.4, -11.62, 0.0, 0.0, 11.62, 11.62, 11.18, 11.62, 8.85, 0.0, 0.0, 0.0, 2.28, 2.35, 3.76, 3.88, 5.04, 5.04, 6.8, 6.8, 7.59, 8.51, 8.24, 8.85, 9.84, 10.3, 11.53, 11.44, 13.28, 14.39, 14.42, 14.42, 15.78, 17.43, 0.0, 0.0, 0.0, 0.0, 0.0, 0.0, 0.0, 0.0, 0.0, 0.0, 0.0, 0.0, -8.22, -3.68, 0.0, 0.0, 0.0, 5.2, 7.13, 8.58, 9.48, 6.7, 5.2, 3.98, 3.77, 5.0, 6.71, 6.67, 6.24, 8.67, 10.62, 12.42, 12.27, 0.0, -10.4, -11.62, -10.79, 3.68, 11.62, 13.7, 14.03, 13.32, 12.79, 10.12, 4.52, 0.0, -7.34, -10.36, -9.8, -7.36, -4.89, -1.47, 0.0, 10.12, -0.0, -9.17, -9.48, -9.22, -10.75, -13.99, -16.54, -15.65, -14.3, -13.86, 0.0, 6.7, 7.24, 8.22, 8.22, 8.22, 7.9, 12.52, 12.96, 5.6, 0.0, 0.0, 0.0, 2.35, 3.76, 3.76, 3.88, 5.04, 5.48, 6.8, 7.59, 8.51, 7.96, 8.54, 9.48, 10.12, 10.12, 9.48, 9.77, 10.73, 12.27, 14.53, 15.77, 14.39, 0.0, 0.0, 0.0, 0.0, 0.0, 0.0, 2.4, 0.0, 0.0, 0.0, 0.0, 0.0, 0.0, -4.6, -3.82, 0.0, 4.32, 8.53, 9.48, 9.8, 8.31, 7.51, 5.2, 4.6, 5.21, 7.26, 7.26, 7.54, 8.01, 10.62, 12.99, 14.9, 15.38, 13.94, 12.85, 14.42, -0.0, 2.6, 11.88, 14.16, 12.87, 13.75, 13.88, 13.28, 12.65, 12.76, 12.11, -4.52, -12.74, -12.51, -11.2, -4.98, 6.0, 11.99, -0.0, -8.05, -8.85, -6.8, -7.59, -8.85, -12.27, -15.65, 0.0, 11.38, 11.7, 7.82, 6.9, 8.1, 6.44, 3.82, 0.0, -0.0, 12.52, 0.0, 0.0, 0.0, 0.0, 2.35, 2.35, 3.76, 3.88, 5.04, 5.48, 6.6, 7.36, 7.93, 8.23, 8.23, 9.13, 9.31, 10.43, 10.75, 10.75, 9.8, 10.12, 10.01, 10.37, 11.16, 9.17, 0.0, 0.0, 0.0, 3.04, 2.06, 3.96, 3.53, 0.0, 0.0, 0.0, 0.0, 0.0, 0.0, 0.0, 1.93, 6.71, 8.94, 7.26, 6.94, 7.19, 7.24, 5.95, 6.95, 8.58, 9.97, 9.42, 9.42, 9.62, 9.81, 11.55, 13.38, 14.3, 16.04, 16.55, 15.68, 13.23, 11.95, 11.44, 13.38, 12.6, 13.09, 13.41, 13.83, 14.87, 17.59, 18.66, 15.18, 14.03, 9.92, -8.0, -11.99, 3.68, 6.45, -0.0, -7.0, -5.23, -0.0, -0.0, -6.8, -10.75, 0.0, 15.2, 16.05, 12.87, 11.38, 10.43, 10.99, 9.31, 7.93, 0.0, -0.0, 0.0, 0.0, 0.0, 0.0, 0.0, 2.35, 2.35, 2.56, 3.76, 3.88, 5.04, 6.6, 6.4, 7.36, 7.69, 8.51, 8.78, 8.85, 9.89, 10.02, 10.3, 10.02, 10.75, 10.43, 10.12, 8.58, 7.93, 6.6, 0.0, 0.0, 0.0, 0.0, 1.96, 1.83, 0.0, 0.0, 0.0, 0.0, 0.0, 0.0, 1.54, 4.2, 5.29, 5.29, 5.52, 5.0, 3.53, 5.0, 5.0, 5.46, 8.55, 7.81, 9.2, 9.3, 9.67, 10.09, 10.75, 11.18, 11.62, 11.62, 10.84, 13.07, 14.33, 14.65, 11.59, 12.96, 13.96, 14.75, 14.69, 13.86, 14.66, 15.49, 17.04, 18.6, 15.74, 15.98, 19.88, 17.43, -0.0, -0.0, -4.52, -5.51, -0.0, 0.0, 11.38, 11.06, 6.8, 0.0, 14.3, 14.75, 14.11, 10.43, 10.3, 9.5, 9.48, 8.2, 4.1, 0.0, 0.0, 0.0, 0.0, 0.0, 12.96, 1.19, 2.35, 2.56, 3.76, 3.76, 5.04, 6.6, 6.6, 7.36, 7.93, 8.78, 8.78, 9.71, 9.12, 10.47, 10.59, 10.3, 10.3, 9.77, 9.77, 7.82, 7.82, 5.64, 3.69, 0.0, 0.0, 0.0, 0.0, 0.0, 0.0, 0.0, 0.0, 0.0, 0.0, 0.0, 2.39, 2.49, 3.49, 2.71, 1.62, 1.76, 0.0, 0.0, 2.6, 5.21, 6.64, 8.18, 7.87, 7.68, 8.03, 8.93, 10.18, 10.28, 8.49, 8.49, 9.21, 9.2, 10.63, 14.16, 14.13, 12.03, 12.96, 13.53, 14.03, 14.75, 14.75, 15.15, 13.8, 11.6, 11.93, 12.14, 12.72, 16.01, 10.43, -6.94, -9.17, -5.37, -0.0, 11.06, 8.43, 6.6, 6.4, 6.2, 9.48, 12.52, 14.3, 12.39, 10.61, 9.53, 8.61, 7.21, 5.16, 0.0, 0.0, 8.22, 12.52, 12.96, 12.96, 1.19, 2.35, 2.56, 3.76, 3.76, 4.89, 5.31, 6.6, 7.59, 7.36, 7.93, 8.18, 9.06, 9.12, 9.66, 10.76, 9.35, 8.21, 9.17, 10.05, 8.05, 8.05, 7.0, 4.95, 2.65, 0.0, 0.0, 0.0, 0.0, 0.0, 0.0, 0.0, 0.0, 0.0, 0.0, 1.4, 1.54, 1.62, 0.0, 0.0, 0.0, 0.0, 0.0, 2.39, 2.28, 4.96, 4.96, 6.32, 7.15, 7.33, 8.8, 9.26, 9.7, 9.21, 8.77, 8.77, 9.21, 9.89, 11.72, 11.92, 10.91, 11.62, 10.88, 10.8, 11.18, 12.07, 11.18, 12.14, 10.61, 9.76, 8.53, 8.31, 10.17, 11.09, 5.09, 4.01, 3.79, 0.0, 0.0, 2.81, 2.35, 3.81, 3.44, 6.21, 11.28, 11.18, 12.35, 10.8, 9.5, 8.24, 5.62, 3.06, 4.15, 5.0, 8.22, 12.07, 12.96, 12.96, 1.19, 2.35, 2.35, 3.65, 3.76, 4.89, 4.89, 6.6, 7.59, 7.59, 7.59, 8.18, 8.18, 8.43, 9.39, 9.66, 9.09, 8.21, 8.21, 9.17, 7.2, 8.28, 5.09, 4.3, 4.18, 0.0, 0.0, 0.0, 0.0, 0.0, 0.0, 0.0, -1.47, 0.0, 0.0, 0.0, 0.0, 0.0, 0.0, 0.0, 0.0, 0.0, 2.39, 1.95, 4.0, 4.96, 6.32, 6.32, 5.36, 6.32, 7.15, 8.67, 9.21, 9.64, 9.64, 9.64, 9.54, 9.33, 7.59, 8.22, 9.97, 10.73, 9.6, 8.38, 8.38, 8.4, 9.7, 9.83, 10.4, 10.36, 7.68, 5.31, 6.58, 8.8, 10.2, 10.18, 7.76, 7.4, 4.23, 2.05, 0.0, 0.0, 2.35, 8.05, 12.14, 10.73, 10.73, 9.77, 5.6, 3.96, 4.13, 3.42, 3.53, 4.48, 10.01, 11.84, 12.71, 12.71, 1.19, 1.19, 2.35, 2.28, 3.65, 4.89, 4.89, 5.92, 6.6, 7.59, 7.59, 8.18, 8.18, 8.43, 8.43, 7.82, 8.83, 9.35, 9.61, 7.98, 7.0, 5.81, 5.64, 4.66, 4.05, 0.0, 0.0, 0.0, 0.0, -2.34, -2.05, -1.83, -1.65, -1.47, -1.14, 0.0, 0.0, 0.0, 0.0, 0.0, 0.0, 0.0, 2.54, 2.69, 2.17, 4.0, 5.36, 5.36, 5.36, 4.6, 6.32, 8.48, 8.94, 8.67, 9.11, 9.11, 8.18, 8.18, 7.27, 7.59, 10.0, 11.18, 9.96, 8.23, 7.27, 6.98, 6.28, 8.06, 7.87, 5.2, 4.95, 3.9, 5.28, 7.22, 8.4, 8.9, 9.71, 9.91, 8.25, 5.81, 2.72, 0.0, 4.52, 12.3, 7.9, 0.0, 0.0, 5.4, 1.98, 2.72, 2.71, 3.68, 3.53, 5.4, 11.2, 11.62, 11.62, 11.62, 1.19, 1.19, 2.28, 2.28, 3.36, 4.74, 4.89, 5.92, 6.1, 7.59, 7.59, 7.59, 8.18, 8.18, 8.18, 8.93, 7.58, 8.29, 8.29, 6.8, 4.81, 5.81, 6.6, 7.0, 2.89, 0.0, 0.0, 0.0, 0.0, 0.0, -2.21, -2.0, -1.83, -1.6, -1.42, -1.07, -0.81, -0.81, 0.0, 0.0, 0.0, 0.0, 0.0, 0.0, 1.84, 3.49, 3.49, 3.32, 3.32, 4.6, 6.64, 8.3, 9.21, 8.67, 8.4, 8.4, 8.8, 9.2, 7.59, 7.59, 8.93, 10.73, 10.38, 8.43, 7.68, 6.32, 5.69, -0.0, -6.64, -1.98, 0.0, 3.05, 4.61, 5.1, 4.22, 3.04, 2.38, 3.69, 6.22, 7.32, 2.79, -0.0, 3.47, 3.14, -0.0, -5.2, -11.62, -9.3, 0.0, 0.0, 1.33, 2.93, 1.91, 10.04, 13.41, 12.04, 10.37, 10.37, 1.19, 1.19, 2.28, 2.28, 3.36, 4.38, 4.89, 5.92, 6.1, 7.06, 7.59, 7.59, 7.59, 7.59, 7.16, 6.95, 7.82, 7.58, 7.0, 6.8, 6.14, 5.81, 6.8, 4.01, 3.16, 3.24, 3.24, 2.43, 0.0, 0.0, 0.0, -2.28, -2.0, -1.83, -1.6, -1.25, -0.97, -0.89, 0.0, 0.0, 0.0, 0.0, 0.0, 0.0, 1.47, 1.69, 1.84, 3.49, 3.49, 4.6, 6.32, 8.3, 8.77, 8.77, 7.6, 8.0, 9.2, 6.64, 6.17, 6.2, 10.18, 9.97, 9.6, 8.23, 6.32, 5.36, 4.96, 0.0, -5.7, -3.19, -1.21, 0.0, 0.0, -1.14, -1.13, -3.92, -6.66, -6.02, 1.73, 5.52, 6.22, -0.0, -0.0, -0.0, -0.0, -0.0, -0.0, -7.27, -6.2, -4.8, -1.98, 0.0, 0.0, 12.3, 12.96, 11.88, 9.48, 9.48, 0.0, 1.19, 2.28, 2.28, 3.36, 3.36, 4.52, 5.92, 6.1, 6.1, 7.06, 7.59, 7.59, 6.6, 6.8, 7.38, 7.38, 5.63, 5.8, 5.99, 5.37, 6.34, 7.2, 4.81, 2.15, 1.94, 1.68, 1.73, 2.0, 0.0, 0.0, -2.05, -2.05, -1.83, -1.65, -1.38, -1.11, -0.97, 0.0, 0.0, 0.0, 0.0, 0.0, 0.0, 0.72, 1.52, 1.54, 1.84, 3.49, 3.32, 6.32, 8.3, 8.3, 8.3, 8.4, 7.67, 7.33, 5.9, 3.39, 7.27, 10.28, 10.08, 9.2, 8.23, 4.96, 5.21, 6.95, 10.73, 8.22, 3.82, 2.54, 2.98, 0.0, -8.32, -7.75, -7.8, -11.18, -9.73, -5.62, 0.0, 4.1, 2.66, -0.0, -0.0, 3.14, 4.8, 5.46, -0.0, -7.59, -7.27, -5.98, -2.81, 0.0, 9.17, 13.41, 10.73, 8.1, 8.1, 0.0, 1.15, 2.28, 2.28, 3.36, 3.36, 4.38, 4.52, 6.1, 6.1, 6.1, 7.06, 7.59, 6.6, 6.6, 6.8, 6.8, 5.81, 4.38, 4.24, 4.62, 5.09, 5.49, 3.79, 2.05, 2.11, 1.83, 1.56, 0.0, 0.0, 0.0, 0.0, -1.83, -1.83, -1.65, -1.46, -1.23, -0.99, -0.86, 0.0, 0.0, 0.0, 0.0, 0.67, 0.64, 0.62, 0.0, 1.62, 1.84, 3.32, 6.01, 7.28, 7.67, 8.3, 8.05, 8.05, 7.21, 6.42, 4.6, 9.83, 9.21, 9.74, 8.72, 7.81, 6.64, 6.95, 6.95, 10.41, 11.62, 12.89, 11.75, 11.13, 9.71, -5.94, -9.27, -9.48, -13.92, -14.46, -13.61, -8.28, 0.0, 3.79, 4.88, 3.47, 9.8, 12.07, 10.73, 0.0, -3.82, -7.51, -6.21, -1.83, 1.9, 6.9, 9.17, 7.78, 4.81, 4.81, 0.0, 0.0, 1.15, 2.28, 3.36, 3.36, 4.38, 4.52, 5.67, 6.1, 6.29, 6.29, 6.1, 6.1, 6.6, 6.8, 6.8, 5.48, 5.31, 4.24, 4.62, 4.5, 4.66, 3.3, 2.0, 2.11, 0.0, 0.0, 0.0, 0.0, 0.0, 0.0, 0.0, -1.78, -1.6, -1.46, -1.3, -1.11, -0.89, 0.0, 0.0, 0.0, 0.67, 0.64, 0.61, 0.62, 0.0, 0.0, 1.67, 2.99, 4.37, 6.01, 7.28, 8.3, 8.3, 8.05, 7.64, 6.95, 7.59, 7.6, 7.15, 9.26, 8.82, 9.21, 9.54, 9.75, 9.97, 9.55, 10.6, 11.53, 12.86, 11.03, 8.35, -12.01, -8.93, -7.44, -11.2, -13.89, -15.46, -14.57, -8.29, 0.0, 3.69, 3.93, 3.85, 3.96, 2.06, 0.0, 0.0, 4.81, 0.0, 3.44, 4.55, 5.8, 5.8, 2.45, 2.06, 2.06, 0.0, 0.0, 1.15, 1.15, 2.11, 3.36, 3.36, 4.52, 4.66, 5.67, 6.29, 6.29, 6.29, 6.1, 6.29, 6.29, 6.29, 5.48, 5.48, 4.24, 4.5, 4.62, 4.37, 2.81, 3.2, 2.0, 1.88, 1.73, 0.0, 0.0, 0.0, 0.0, 0.0, 0.0, 0.0, -1.42, -1.3, -1.15, 0.0, 0.0, 0.0, 0.0, 0.7, 0.64, 0.57, 0.54, 0.0, 1.54, 2.69, 2.54, 3.8, 5.31, 6.01, 7.89, 7.89, 8.3, 7.37, 7.51, 8.38, 9.83, 6.7, 7.89, 9.39, 9.83, 9.83, 10.28, 10.28, 10.84, 9.2, 8.23, 10.28, 4.91, 9.54, 9.8, -5.65, -14.3, -9.67, -10.79, -13.75, -14.75, -14.94, -8.57, -1.1, 0.98, 1.1, 0.0, 0.0, 3.25, 8.05, 10.47, 7.82, 7.02, 5.8, 5.6, 2.45, 0.0, 0.0, 0.0, 0.0, 0.0, 1.15, 1.06, 2.04, 2.04, 3.12, 4.52, 4.52, 5.67, 6.29, 6.29, 6.29, 6.29, 6.29, 6.29, 5.04, 5.04, 5.04, 5.19, 4.12, 4.35, 4.35, 4.5, 2.89, 3.3, 1.83, 1.69, 1.54, 1.54, 1.37, 1.46, 1.56, 0.0, 0.0, 0.0, 0.0, 0.0, 0.0, 0.0, 0.0, 0.75, 0.67, 0.67, 0.61, 0.0, 0.0, 1.22, 1.81, 2.21, 2.89, 4.88, 6.9, 7.47, 8.33, 7.89, 8.3, 6.99, 8.18, 8.8, 9.83, 8.24, 8.67, 9.83, 9.39, 9.83, 10.28, 10.28, 10.28, 7.27, 1.58, 2.24, 8.42, 10.83, 7.38, -6.36, -17.85, -14.39, -13.44, -11.62, -14.68, -13.59, -9.33, -4.95, -1.47, 0.0, 8.05, 11.6, 12.45, 12.39, 12.79, 8.24, 6.51, 6.0, 3.82, 2.93, 0.0, 0.0, 0.0, 0.0, 1.03, 1.03, 2.04, 2.04, 3.12, 4.21, 4.66, 4.66, 5.67, 5.85, 6.29, 6.47, 6.47, 6.29, 5.04, 5.04, 5.04, 5.19, 4.12, 4.35, 4.47, 4.35, 4.62, 2.98, 3.39, 1.65, 1.69, 1.54, 1.41, 1.37, 1.5, 1.42, 1.51, 0.0, 0.0, 0.0, 0.0, 0.0, 0.0, 0.79, 0.7, 0.67, 0.64, 0.0, 0.0, 1.14, 1.69, 2.33, 2.86, 4.47, 7.44, 7.31, 8.06, 8.06, 7.89, 7.89, 8.48, 9.04, 8.18, 9.97, 8.49, 8.94, 8.94, 9.83, 10.28, 10.73, 9.55, 7.27, 4.23, 5.02, 7.99, 12.3, 13.64, 11.31, -8.8, -18.85, -0.0, -0.0, -13.41, -14.99, -12.22, -7.82, 0.0, 11.09, 12.45, 12.45, 12.45, 13.28, 13.07, 9.17, 7.36, 6.95, 6.43, 4.65, 4.48, 4.48, 0.0, 0.0, 1.03, 1.03, 2.04, 2.11, 3.12, 3.22, 4.66, 4.66, 5.67, 5.85, 5.85, 6.02, 6.02, 5.85, 5.67, 5.04, 5.04, 5.19, 4.12, 4.23, 4.35, 4.47, 4.35, 4.62, 3.07, 3.16, 1.65, 1.5, 1.37, 1.34, 1.34, 2.72, 2.96, 1.46, 1.42, 0.0, 0.0, 0.0, 0.0, 0.73, 0.7, 0.67, 0.59, 0.0, 0.61, 1.14, 1.69, 1.69, 2.89, 5.38, 6.8, 7.21, 6.98, 6.94, 8.33, 7.47, 7.74, 7.2, 8.18, 7.64, 10.08, 8.49, 10.28, 9.39, 10.28, 10.28, 9.6, 8.24, 5.0, 3.82, 6.1, 9.67, 13.45, 15.58, 11.09, -18.78, -0.0, 10.8, 12.14, 14.3, 0.0, 14.3, 12.96, 13.59, 13.7, 12.39, 12.72, 12.83, 12.14, 10.02, 7.95, 7.59, 7.36, 7.13, 6.51, 6.51, 0.0, 0.0, 1.03, 1.03, 2.04, 2.11, 3.12, 3.22, 3.32, 4.66, 5.67, 5.85, 5.85, 6.02, 6.02, 6.02, 5.67, 4.66, 4.81, 5.35, 5.35, 4.23, 4.35, 4.35, 4.35, 4.35, 3.16, 3.07, 2.8, 2.88, 1.34, 1.34, 2.65, 2.65, 2.88, 2.88, 1.46, 1.42, 1.3, 0.0, 0.0, 0.82, 0.67, 0.67, 0.67, 0.72, 0.72, 1.2, 1.14, 1.71, 3.6, 5.69, 6.95, 7.51, 7.21, 7.37, 7.45, 7.47, 7.31, 7.4, 6.55, 7.96, 9.54, 8.94, 9.39, 10.73, 10.28, 9.83, 7.27, 5.75, 4.08, 2.93, 0.0, 0.0, 7.6, 8.07, 9.9, 6.42, 0.0, 3.68, 10.41, 11.18, 12.07, 14.3, 13.41, 13.86, 13.72, 13.96, 12.66, 12.14, 11.2, 9.17, 7.89, 8.18, 9.2, 8.68, 7.42, 7.42, 0.0, 0.0, 1.03, 1.03, 2.04, 1.96, 2.9, 3.22, 3.32, 4.34, 4.66, 5.85, 5.85, 6.02, 6.02, 6.02, 5.85, 4.66, 4.81, 4.95, 4.95, 4.12, 4.23, 4.01, 4.35, 4.35, 4.23, 4.12, 2.8, 2.8, 2.65, 1.34, 2.45, 2.65, 2.65, 2.88, 2.88, 1.46, 1.3, 1.3, 1.06, 0.86, 0.72, 0.98, 1.93, 1.47, 0.82, 0.85, 1.54, 1.71, 3.64, 5.69, 6.7, 6.95, 7.01, 7.33, 8.06, 7.63, 6.88, 6.99, 6.55, 8.0, 9.32, 9.39, 9.83, 10.28, 10.73, 0.0, -8.4, -4.6, 3.19, 3.6, 0.0, -10.73, -10.12, -3.33, 1.7, 6.25, 5.37, 0.0, -0.0, 9.39, 10.6, 9.86, 12.72, 13.31, 13.41, 13.88, 12.79, 12.03, 11.12, 9.17, 7.96, 7.69, 8.43, 8.93, 7.98, 7.98, 0.0, 0.0, 1.03, 1.03, 1.9, 1.96, 1.96, 3.0, 3.32, 4.34, 4.34, 5.67, 5.85, 6.02, 6.02, 6.02, 6.02, 4.81, 4.81, 4.81, 4.95, 3.69, 3.79, 3.9, 3.9, 4.35, 4.23, 4.12, 4.12, 2.8, 2.57, 1.3, 2.57, 2.57, 2.57, 2.8, 2.88, 2.88, 1.3, 1.3, 1.13, 0.96, 0.79, 0.65, 1.16, 1.84, 1.44, 2.16, 2.94, 3.78, 4.05, 5.1, 6.23, 6.7, 6.8, 6.72, 6.85, 7.28, 6.94, 6.16, 6.21, 8.37, 8.41, 8.94, 9.29, 9.76, 10.22, 10.18, -9.39, -9.39, 0.0, 4.72, 5.16, -5.46, -14.03, -13.62, -6.31, 0.0, 4.66, 2.11, -6.6, -7.59, 8.94, 8.79, 9.33, 12.72, 13.09, 12.98, 12.42, 12.03, 11.53, 10.65, 8.23, 7.69, 7.21, 7.66, 7.2, 7.2, 0.0, 0.0, 1.03, 0.96, 1.9, 1.96, 1.96, 3.0, 3.09, 4.34, 4.34, 4.34, 5.85, 6.02, 6.02, 6.02, 4.6, 4.47, 4.81, 4.81, 4.81, 3.69, 3.69, 3.79, 3.9, 4.23, 4.23, 4.12, 4.0, 2.72, 2.57, 1.3, 2.5, 2.5, 2.72, 2.72, 2.8, 2.8, 1.3, 1.3, 1.26, 1.03, 0.86, 0.72, 0.62, 0.98, 2.63, 3.25, 4.81, 3.85, 3.37, 4.73, 5.98, 6.51, 6.41, 6.51, 7.28, 7.45, 7.48, 6.94, 7.12, 8.24, 8.85, 9.39, 8.72, 7.67, 9.29, 10.32, 7.27, 4.4, 0.0, 6.7, 6.57, 5.09, -9.24, -17.5, -14.47, -7.82, -2.15, 1.06, 0.0, -5.51, 12.72, 10.21, 9.36, 10.32, 10.32, 12.42, 12.03, 12.74, 13.15, 11.53, 9.8, 7.95, 6.64, 6.6, 6.56, 6.56, 0.0, 0.0, 0.96, 0.96, 0.96, 1.96, 1.96, 2.02, 3.09, 3.09, 4.34, 4.34, 5.3, 5.85, 6.02, 4.6, 4.6, 4.6, 4.6, 4.47, 4.81, 3.69, 3.79, 3.79, 3.79, 3.9, 4.23, 4.0, 4.01, 2.56, 2.72, 2.8, 2.5, 2.5, 2.64, 2.72, 2.72, 2.8, 1.3, 1.3, 1.3, 1.1, 0.83, 0.7, 0.0, 0.0, 1.84, 3.02, 4.49, 3.37, 3.37, 4.73, 5.37, 5.65, 5.65, 6.28, 6.72, 7.04, 7.48, 6.9, 6.94, 7.31, 8.94, 8.49, 8.94, 6.32, 5.1, 9.83, 7.59, 6.7, 5.63, 5.46, 4.24, 6.53, 3.45, -20.75, -17.2, -10.73, -7.34, -2.05, 0.0, 0.0, 9.42, 12.74, 12.3, 11.21, 10.4, 9.2, 11.88, 12.89, 13.23, 12.45, 9.48, 7.69, 6.42, 5.5, 5.3, 5.3, 0.0, 0.0, 0.96, 0.96, 0.96, 1.96, 1.96, 2.02, 2.09, 3.09, 3.32, 4.34, 4.34, 5.3, 4.6, 4.6, 4.6, 4.6, 4.6, 4.47, 4.6, 3.79, 3.79, 3.69, 3.79, 3.79, 4.12, 4.0, 2.56, 3.49, 2.56, 2.5, 2.57, 2.57, 2.5, 2.72, 2.72, 2.72, 2.57, 1.3, 1.2, 1.13, 0.89, 0.73, 0.0, 0.0, 0.89, 2.92, 3.42, 2.5, 3.05, 4.32, 5.08, 5.65, 5.65, 6.51, 7.2, 6.94, 6.61, 6.61, 6.61, 7.5, 8.77, 8.05, 8.49, 8.24, 6.01, 8.06, 8.55, 6.7, 5.72, 3.82, 0.0, 1.01, 4.42, 0.0, -14.75, -11.45, -6.0, -3.79, 0.0, 1.42, 6.14, 16.22, 14.3, 14.19, 11.92, 10.09, 12.87, 12.04, 12.58, 12.58, 10.73, 8.38, 5.63, 4.89, 4.52, 4.52, 0.0, 0.0, 0.0, 0.96, 0.96, 0.99, 0.92, 1.02, 2.02, 2.24, 3.32, 4.34, 4.34, 4.34, 4.47, 4.6, 4.6, 4.47, 4.47, 4.6, 4.6, 3.52, 3.79, 3.69, 3.69, 3.79, 4.12, 4.0, 2.72, 2.43, 2.43, 2.43, 2.24, 2.31, 2.5, 3.69, 2.72, 2.72, 2.57, 1.3, 1.2, 1.17, 0.96, 0.76, 0.73, 0.8, 1.77, 2.81, 3.55, 2.76, 3.44, 5.26, 5.68, 5.98, 5.65, 6.15, 6.95, 7.51, 6.94, 7.06, 7.52, 8.05, 8.33, 8.94, 8.05, 8.49, 8.49, 8.49, 9.33, 7.59, 7.27, 5.75, 0.0, -1.11, 2.25, 5.85, 0.0, -12.39, -5.31, -2.98, 0.0, 1.46, 3.24, 16.99, 16.19, 13.75, 13.41, 11.03, 12.04, 11.62, 11.21, 11.87, 10.41, 5.8, 4.1, 4.74, 3.76, 3.76, 0.0, 0.0, 0.0, 0.0, 0.96, 0.89, 0.0, 0.0, 1.02, 2.24, 3.58, 4.66, 4.34, 4.34, 4.47, 4.6, 4.47, 4.47, 4.47, 4.6, 4.6, 3.52, 3.79, 3.79, 3.69, 3.69, 3.79, 3.69, 2.5, 2.5, 2.43, 2.35, 2.18, 2.18, 2.43, 3.69, 2.72, 2.72, 2.5, 1.3, 1.2, 1.17, 0.99, 0.83, 0.73, 0.82, 1.77, 2.71, 3.55, 3.25, 4.71, 5.52, 5.68, 6.31, 5.98, 6.15, 6.95, 7.2, 7.21, 7.58, 7.15, 8.05, 8.05, 8.49, 8.94, 8.94, 8.49, 8.94, 8.72, 8.55, 7.27, 6.76, 4.39, 1.08, 0.0, 4.7, 6.91, 0.0, -2.57, -1.78, -1.42, 0.0, 2.65, 15.18, 14.53, 12.46, 12.96, 13.86, 11.62, 11.21, 10.4, 10.0, 8.22, 6.7, 5.6, 3.96, 3.98, 3.98, 0.0, 0.0, 0.0, 0.0, 0.0, 0.0, 0.0, 0.0, 1.1, 2.35, 3.58, 4.66, 4.66, 4.34, 4.34, 4.47, 4.47, 4.47, 4.47, 4.6, 3.52, 3.52, 3.52, 3.79, 3.79, 3.69, 3.69, 3.69, 3.58, 2.43, 2.43, 2.43, 2.18, 2.11, 2.35, 3.47, 3.88, 2.72, 2.5, 1.26, 1.17, 1.17, 1.02, 0.86, 0.79, 0.79, 1.63, 2.61, 3.82, 4.3, 5.28, 6.58, 6.64, 6.32, 5.98, 6.28, 6.79, 6.8, 7.01, 7.51, 7.58, 6.26, 8.05, 7.6, 8.49, 9.39, 8.49, 9.39, 9.21, 8.8, 8.73, 7.06, 6.51, 4.51, 0.0, 2.98, 7.6, 6.58, 3.13, 0.0, 0.0, 0.0, 0.0, 10.79, 13.41, 13.41, 12.96, 11.84, 10.79, 9.97, 9.3, 9.3, 6.7, 6.94, 4.65, 3.44, 3.04, 3.04, 0.0, 0.0, 0.0, 0.0, 0.0, -0.89, 0.0, 0.0, 1.1, 3.47, 4.52, 4.66, 5.67, 4.34, 4.34, 4.47, 4.47, 4.47, 4.47, 4.6, 3.52, 3.52, 3.52, 3.79, 3.69, 3.69, 3.69, 3.69, 3.58, 2.43, 2.43, 2.43, 2.18, 2.11, 2.28, 3.36, 3.76, 2.64, 2.43, 1.26, 1.17, 1.17, 1.06, 1.16, 0.74, 0.78, 1.69, 2.71, 3.68, 5.57, 5.76, 6.88, 6.58, 6.64, 6.31, 6.28, 6.79, 7.06, 7.26, 7.4, 7.58, 6.71, 8.05, 7.6, 8.49, 9.39, 8.49, 8.94, 9.26, 8.91, 8.54, 8.94, 7.44, 6.85, 4.18, -13.57, -3.47, 2.52, 3.53, 2.88, 3.31, 2.98, 1.98, 8.53, 12.52, 12.96, 12.71, 11.84, 10.73, 8.53, 7.54, 6.44, 6.44, 4.81, 4.1, 1.55, 1.43, 3.04, -0.86, -0.86, -0.86, -0.89, -0.89, -0.89, -0.92, 0.0, 2.18, 4.52, 4.52, 5.5, 5.14, 4.21, 4.34, 4.47, 4.47, 4.47, 4.47, 4.6, 3.52, 3.52, 3.52, 3.79, 3.79, 3.69, 3.69, 3.69, 3.58, 2.43, 2.35, 2.35, 2.18, 2.11, 2.28, 3.36, 2.48, 2.56, 2.43, 1.23, 1.13, 1.17, 1.03, 0.0, 0.71, 0.85, 1.84, 2.82, 4.99, 5.78, 7.26, 7.48, 7.18, 6.64, 6.31, 6.28, 6.96, 7.46, 7.01, 7.26, 7.52, 7.15, 8.05, 7.15, 8.05, 9.39, 8.94, 8.49, 8.85, 9.03, 9.03, 9.97, 7.78, 7.11, 8.0, -14.47, -14.3, -8.53, -1.34, 1.71, 7.04, 7.98, 5.81, 5.8, 12.96, 12.96, 13.01, 12.45, 9.17, 6.44, 5.6, 3.96, 3.96, 1.83, 0.0, 0.0, 0.0, 1.43, -0.86, -0.86, -0.86, -0.89, -0.89, -0.89, 0.0, 0.0, 2.18, 4.52, 5.5, 5.14, 5.14, 4.21, 4.34, 4.34, 4.47, 4.47, 4.18, 3.42, 3.52, 3.52, 3.52, 3.69, 3.69, 3.58, 3.58, 3.58, 3.58, 2.43, 2.35, 2.35, 2.18, 2.11, 2.28, 2.28, 2.48, 2.48, 2.35, 1.19, 1.13, 1.13, 0.0, 0.0, 0.98, 1.91, 2.2, 4.58, 5.36, 6.21, 6.72, 7.54, 7.9, 7.27, 6.31, 6.28, 6.96, 7.46, 6.8, 7.51, 7.97, 7.6, 5.33, 8.49, 8.49, 8.94, 8.05, 8.94, 8.85, 9.03, 9.46, 8.55, 8.01, 7.36, 10.46, 0.0, -15.39, -15.58, -10.61, 0.0, 11.8, 10.05, 7.08, 5.09, 5.8, 13.41, 13.57, 10.12, 4.98, 2.13, 2.13, 0.0, 0.0, 0.0, 0.0, -1.17, -2.06, 0.0, -0.86, -0.86, -0.86, -0.86, 0.0, 0.0, 0.0, 0.92, 1.96, 4.21, 5.14, 5.14, 5.14, 4.21, 4.34, 4.34, 4.47, 4.18, 4.18, 3.42, 3.42, 3.42, 3.52, 3.79, 3.69, 3.58, 3.58, 3.58, 3.58, 2.43, 2.35, 2.28, 2.11, 2.11, 2.28, 2.28, 2.48, 2.48, 1.15, 1.15, 1.1, 1.13, 0.0, 0.0, 0.0, 1.29, 3.47, 4.89, 5.73, 6.42, 7.2, 7.82, 8.22, 7.59, 6.65, 6.28, 6.63, 7.46, 7.2, 7.51, 8.3, 8.05, 7.6, 7.6, 8.05, 8.49, 8.49, 9.39, 8.49, 9.03, 9.04, 8.18, 7.26, 7.28, 8.46, 12.77, -8.8, -18.65, -14.11, 11.2, 14.47, 11.06, 8.99, 6.72, 2.5, 4.24, 6.4, 3.47, 0.0, 0.0, 0.0, -2.13, -4.1, -2.81, -3.41, -3.14, -3.04, -3.04, 0.0, 0.0, 0.0, 0.0, 0.0, 0.0, 0.84, 0.86, 2.72, 4.08, 4.97, 5.14, 5.14, 4.21, 4.21, 4.34, 4.05, 4.18, 4.05, 3.18, 3.42, 3.42, 3.42, 3.42, 3.69, 3.58, 3.58, 3.58, 2.43, 2.43, 2.35, 2.11, 2.11, 2.11, 2.2, 2.28, 2.48, 2.48, 1.15, 1.06, 1.1, 0.0, 0.0, 0.0, 0.0, 1.04, 3.47, 4.38, 4.99, 6.21, 6.96, 7.54, 7.9, 6.95, 6.63, 6.28, 7.17, 7.46, 7.2, 7.51, 8.3, 8.49, 7.13, 8.05, 8.05, 8.49, 8.94, 8.94, 8.49, 9.26, 8.8, 8.18, 7.9, 6.44, 8.05, 8.94, 9.86, 4.47, -13.28, 11.6, 13.59, 9.71, 8.1, 7.85, 4.45, 2.63, 0.0, 0.0, 0.0, -2.13, -3.56, -3.56, -5.11, -5.27, -4.43, -5.18, -5.18, -5.18, 0.0, 0.0, 0.0, 0.0, 0.86, 0.84, 0.84, 1.66, 2.72, 4.08, 4.97, 4.97, 5.14, 4.21, 4.21, 4.05, 4.05, 4.05, 3.09, 3.18, 3.42, 3.42, 3.42, 3.42, 3.58, 3.47, 3.58, 3.58, 2.43, 2.43, 2.35, 2.11, 2.11, 2.04, 2.2, 2.2, 2.48, 1.25, 1.15, 1.06, 1.1, 0.0, 0.0, 0.0, 0.0, 1.04, 2.2, 3.14, 3.82, 4.81, 6.41, 6.98, 6.83, 6.32, 6.35, 6.28, 6.79, 7.06, 7.43, 7.09, 7.87, 8.49, 8.03, 7.97, 8.05, 8.49, 8.94, 8.94, 8.49, 8.82, 8.4, 7.33, 7.56, 6.44, 5.98, 5.43, 7.82, 9.37, 8.08, 9.89, 7.4, 5.8, 5.65, 6.18, 5.07, 1.66, 0.0, -6.0, -4.98, -3.56, -3.44, -4.93, -6.43, -5.8, -5.6, -5.4, -5.4, -5.4, 0.0, 0.0, 0.86, 0.86, 0.81, 0.81, 0.84, 1.66, 2.63, 4.08, 4.97, 4.97, 5.14, 4.21, 4.21, 4.05, 4.05, 4.05, 3.09, 3.09, 3.42, 3.42, 3.42, 3.42, 3.69, 3.58, 3.58, 2.43, 2.43, 2.43, 2.35, 2.18, 2.11, 1.06, 2.2, 2.2, 1.11, 1.15, 1.15, 1.06, 0.0, 0.0, 0.0, 0.0, 0.0, 1.0, 2.06, 3.04, 3.97, 5.14, 5.64, 5.38, 5.64, 5.64, 6.01, 6.28, 6.23, 6.67, 6.92, 7.01, 7.87, 8.47, 8.47, 7.13, 8.49, 8.49, 8.94, 8.05, 8.94, 8.82, 8.8, 8.0, 7.21, 6.17, 5.75, 5.4, 6.2, 7.32, 8.84, 10.64, 10.27, 6.29, 3.53, 4.3, 5.53, 3.3, 0.0, -8.05, -8.1, -5.6, -6.0, -7.54, -7.54, -7.51, -5.86, -5.64, -5.64, -5.64, 0.83, 0.83, 0.83, 0.86, 0.81, 0.81, 0.84, 1.66, 2.81, 4.08, 4.97, 4.97, 4.21, 4.21, 3.93, 4.05, 4.05, 3.09, 3.09, 3.09, 3.32, 3.32, 3.42, 3.42, 3.32, 3.58, 3.58, 2.43, 2.43, 2.43, 2.35, 2.18, 1.06, 1.06, 1.11, 1.11, 1.11, 1.15, 1.15, 1.06, 0.0, 0.0, 0.0, 0.0, 0.0, 1.0, 2.06, 3.04, 4.12, 5.35, 5.29, 5.13, 4.94, 5.35, 5.69, 6.01, 6.59, 6.67, 6.51, 6.79, 7.4, 8.47, 8.49, 7.97, 6.23, 8.94, 8.49, 8.05, 8.49, 8.94, 8.48, 8.4, 7.56, 5.98, 5.43, 6.21, 6.53, 6.73, 8.18, 9.25, 9.92, 10.4, 6.47, 2.27, 4.08, 1.65, 0.0, -7.78, -10.37, -8.38, -7.24, -8.58, -8.22, -7.44, -6.76, -6.5, -6.5, -6.5, 0.83, 0.83, 0.83, 0.81, 0.81, 0.81, 0.81, 0.89, 2.81, 4.08, 4.97, 4.97, 4.08, 4.21, 3.93, 3.93, 3.0, 3.0, 3.0, 3.0, 3.32, 3.32, 3.32, 3.42, 3.42, 3.58, 2.35, 2.43, 2.43, 2.43, 2.24, 1.1, 1.1, 1.06, 1.03, 1.11, 1.11, 1.11, 1.15, 1.06, 0.0, 0.0, 0.0, 0.0, 0.0, 1.0, 2.06, 3.04, 4.28, 4.81, 5.52, 4.83, 5.49, 5.35, 6.01, 6.01, 6.23, 6.52, 6.51, 6.79, 7.4, 8.03, 8.49, 8.42, 7.07, 8.49, 8.49, 8.49, 8.94, 8.49, 8.82, 8.91, 7.56, 6.98, 6.71, 7.14, 6.72, 7.03, 7.79, 7.79, 8.29, 9.99, 10.8, 2.99, 0.0, 0.0, -2.98, -7.78, -10.37, -7.24, -6.45, -7.9, -7.9, -7.59, -7.59, -6.7, -6.7, -6.7, 0.83, 0.83, 0.78, 0.78, 0.81, 0.81, 0.81, 1.77, 2.81, 3.94, 4.08, 4.08, 4.08, 3.93, 3.93, 3.0, 3.0, 3.0, 3.0, 3.0, 3.09, 3.32, 3.42, 3.42, 3.42, 2.24, 2.18, 2.11, 2.18, 2.18, 2.24, 1.13, 1.1, 1.06, 1.03, 1.11, 1.11, 1.11, 1.11, 1.03, 0.0, 0.0, 0.0, 0.0, 1.08, 1.04, 2.13, 3.04, 4.28, 4.81, 5.52, 5.29, 5.76, 5.49, 5.35, 6.01, 6.0, 6.52, 6.51, 6.72, 6.94, 8.03, 8.49, 8.33, 7.4, 7.94, 8.05, 8.49, 8.94, 8.49, 9.39, 8.72, 8.55, 8.15, 7.59, 7.36, 6.67, 7.36, 7.9, 8.18, 7.93, 9.71, 13.66, 13.39, 0.0, -14.54, -9.67, -10.12, -7.24, -8.53, -8.22, 0.0, -7.59, -7.27, -7.59, -6.44, -6.44, -6.44, 0.83, 0.83, 0.78, 0.78, 0.0, 0.0, 0.0, 1.9, 3.02, 3.94, 4.08, 4.08, 4.08, 3.93, 3.93, 3.0, 3.0, 3.0, 3.0, 3.0, 3.0, 3.32, 3.32, 2.24, 2.24, 2.24, 2.18, 2.11, 2.11, 2.11, 2.11, 1.1, 1.1, 1.06, 1.03, 1.11, 1.11, 1.11, 1.11, 0.0, 0.0, 0.0, 0.0, 0.0, 1.08, 1.04, 2.13, 3.14, 4.12, 4.81, 4.8, 5.29, 5.46, 5.76, 5.35, 5.69, 6.35, 6.9, 6.8, 6.3, 6.94, 7.58, 8.05, 8.33, 7.26, 6.94, 7.6, 8.05, 8.49, 8.94, 9.39, 9.39, 9.33, 8.37, 8.58, 7.9, 7.72, 7.54, 8.42, 8.37, 8.05, 8.99, 11.95, 15.09, 14.88, -20.39, -14.75, 0.0, 0.0, 0.0, 0.0, 0.0, 0.0, -7.27, -7.27, -7.27, -7.27, -7.27, 0.78, 0.75, 0.78, 0.0, 0.0, 0.0, 0.0, 1.83, 3.02, 3.94, 4.08, 4.08, 3.93, 3.93, 2.9, 2.9, 2.9, 2.9, 2.9, 3.0, 3.0, 2.24, 2.24, 2.24, 2.24, 2.24, 2.18, 2.18, 2.11, 2.04, 1.03, 1.03, 1.06, 1.06, 1.03, 1.08, 1.08, 1.08, 1.08, 0.0, 0.0, 0.0, 0.0, 0.0, 1.08, 1.08, 2.13, 3.04, 4.12, 3.97, 4.8, 4.6, 5.06, 5.49, 5.64, 6.01, 6.35, 6.7, 6.8, 6.0, 6.47, 7.06, 7.6, 7.97, 7.69, 6.7, 7.1, 7.6, 8.05, 8.49, 8.77, 8.94, 9.39, 9.55, 8.73, 8.07, 7.9, 7.72, 8.07, 8.3, 7.79, 8.05, 8.72, 11.04, 13.35, -3.86, -0.0, 0.0, 3.39, 4.32, 5.2, 0.0, 0.0, -10.73, -7.27, -6.95, -6.95, -6.95, 0.75, 0.0, 0.0, 0.0, 0.0, 0.0, 0.86, 1.83, 3.02, 3.94, 4.08, 4.08, 3.0, 3.0, 2.9, 2.81, 2.81, 2.9, 2.02, 2.02, 2.02, 2.18, 2.24, 2.24, 2.24, 2.24, 2.18, 2.18, 2.11, 2.11, 1.03, 1.03, 1.03, 1.03, 0.99, 1.08, 1.08, 1.08, 1.08, 0.0, 0.0, 0.0, 0.0, 0.0, 1.08, 1.08, 2.06, 3.04, 3.18, 3.97, 3.98, 4.4, 4.4, 5.76, 5.89, 5.69, 6.06, 6.32, 6.32, 6.4, 6.47, 6.61, 7.15, 7.58, 7.69, 6.51, 6.28, 7.08, 7.6, 7.97, 8.06, 8.3, 9.39, 9.39, 9.2, 8.73, 8.07, 7.9, 7.72, 7.64, 7.01, 7.79, 6.31, 6.8, 13.64, -0.0, 5.37, 8.22, 10.28, 9.6, 8.73, 6.71, -10.73, -7.59, -9.83, -9.39, -9.39, -9.39, 0.0, 0.0, 0.0, 0.0, 0.0, 0.0, 0.83, 1.97, 2.92, 3.94, 4.08, 3.12, 3.0, 2.9, 2.81, 2.81, 2.9, 1.96, 2.02, 2.02, 2.02, 2.18, 2.24, 2.24, 2.24, 2.18, 2.18, 2.11, 2.11, 1.06, 1.03, 1.03, 1.03, 1.03, 1.08, 1.08, 1.08, 1.04, 1.04, 0.0, 0.0, 0.0, 0.0, 0.0, 1.08, 1.08, 2.06, 2.06, 3.18, 3.97, 3.67, 3.82, 4.6, 5.21, 5.89, 5.59, 6.06, 6.0, 5.95, 6.4, 6.23, 6.6, 6.71, 7.13, 7.4, 6.6, 6.4, 6.16, 7.52, 8.05, 8.17, 8.22, 8.22, 8.82, 9.64, 9.04, 8.58, 8.35, 7.42, 6.98, 6.45, 7.01, 6.6, 11.96, 8.8, 7.8, 12.33, 12.39, 11.28, 10.28, 8.93, 8.22, 0.0, -11.18, -10.73, -8.94, -8.94, -8.94, 0.0, 0.0, 0.0, 0.0, 0.0, 0.0, 0.89, 2.92, 2.92, 3.02, 3.12, 3.12, 2.9, 2.9, 2.81, 1.9, 1.96, 1.96, 1.96, 2.02, 2.02, 2.18, 2.24, 2.24, 2.24, 2.18, 2.18, 2.11, 1.06, 1.03, 1.11, 1.11, 1.11, 1.03, 1.08, 1.04, 1.04, 1.04, 0.0, 0.0, 0.0, 0.0, 0.0, 0.0, 1.08, 1.08, 2.06, 2.06, 2.93, 3.06, 3.67, 3.82, 4.4, 5.21, 5.36, 5.59, 6.01, 6.06, 6.32, 6.25, 6.23, 6.42, 6.68, 6.71, 7.06, 6.79, 6.1, 4.9, 7.21, 8.05, 8.49, 8.38, 8.6, 9.03, 9.39, 9.74, 9.4, 8.79, 7.59, 6.7, 6.57, 7.12, 9.95, 12.42, -0.0, 10.35, 15.77, 13.86, 12.52, 11.51, 9.32, 8.22, 5.98, 0.0, -11.18, -9.83, -9.83, -9.83, 0.0, 0.0, 0.0, 0.0, 0.0, 0.0, 0.89, 2.92, 2.92, 3.02, 3.02, 2.81, 2.81, 2.81, 1.83, 1.9, 1.96, 1.96, 1.96, 2.02, 2.02, 2.18, 2.18, 2.18, 2.18, 1.1, 1.06, 1.06, 1.06, 1.03, 1.08, 1.11, 1.11, 1.11, 1.08, 1.04, 1.04, 1.04, 0.0, 0.0, 0.0, 0.0, 0.0, 0.0, 1.08, 1.04, 2.06, 2.06, 3.04, 3.06, 2.82, 3.51, 4.4, 4.56, 4.96, 5.1, 5.59, 6.06, 6.08, 6.64, 6.54, 6.85, 6.6, 6.71, 6.68, 6.94, 6.6, 5.6, 6.88, 7.5, 8.05, 8.33, 8.77, 9.26, 9.39, 9.39, 9.54, 8.99, 7.97, 7.9, 7.48, 8.01, 11.04, 14.46, 0.0, 6.22, 14.79, 12.52, 11.09, 10.05, 8.94, 7.14, 7.02, 5.2, 0.0, -10.28, -10.28, -10.28, 0.0, 0.0, 0.0, 0.0, 0.0, 0.0, 0.89, 2.92, 2.81, 2.92, 2.92, 2.72, 2.72, 1.83, 1.83, 1.9, 1.96, 1.96, 1.96, 1.96, 2.02, 2.18, 2.18, 1.1, 1.1, 1.1, 1.06, 1.15, 1.11, 1.11, 1.08, 1.11, 1.11, 1.11, 1.08, 1.04, 1.04, 1.04, 0.0, 0.0, 0.0, 0.0, 0.0, 0.0, 1.04, 2.06, 2.06, 2.06, 2.06, 2.82, 2.82, 2.71, 3.65, 4.56, 4.34, 5.1, 5.59, 5.69, 6.08, 6.08, 6.64, 6.54, 6.58, 7.15, 7.15, 6.61, 6.79, 6.1, 5.31, 7.5, 8.05, 8.49, 8.94, 8.82, 9.26, 9.39, 9.39, 8.54, 7.74, 7.59, 7.18, 8.05, 8.51, 13.64, 8.28, 6.79, 13.46, 12.96, 9.33, 9.6, 8.49, 7.42, 5.86, 4.72, 0.0, -11.62, -11.62, -11.62, 0.0, 0.0, 0.0, 0.0, 0.0, 0.0, 1.71, 2.81, 2.81, 2.81, 2.92, 1.83, 1.83, 1.83, 1.83, 1.9, 1.96, 1.96, 1.96, 1.96, 1.96, 1.1, 1.1, 1.1, 1.1, 1.06, 1.15, 1.11, 1.11, 1.11, 1.08, 1.11, 1.11, 1.08, 1.08, 1.04, 1.04, 1.0, 1.0, 0.0, 0.0, 0.0, 0.0, 0.96, 1.04, 2.06, 2.06, 1.9, 1.9, 1.91, 2.6, 2.71, 3.65, 3.81, 4.56, 5.36, 5.1, 6.01, 5.69, 6.08, 6.44, 6.54, 6.79, 7.12, 7.15, 6.68, 6.47, 6.0, 5.31, 7.21, 8.05, 8.05, 8.49, 8.49, 8.82, 8.82, 8.94, 9.13, 8.0, 7.74, 6.98, 6.56, 6.6, 7.96, 10.24, 10.8, 12.01, 14.22, 9.55, 7.74, 7.59, 6.41, 5.2, 4.06, 1.91, -10.4, -10.4, -10.4, 0.0, 0.0, 0.0, 0.0, 0.0, 0.0, 1.71, 1.84, 2.71, 2.81, 1.9, 1.83, 1.83, 1.83, 1.83, 1.9, 1.9, 0.99, 0.99, 0.99, 1.06, 1.1, 1.1, 1.1, 1.06, 1.15, 1.15, 1.11, 1.11, 1.08, 1.08, 1.11, 1.11, 1.08, 1.04, 1.04, 1.0, 1.0, 1.0, 0.0, 0.0, 0.0, 0.0, 1.0, 1.0, 1.98, 1.9, 1.9, 1.9, 1.91, 1.76, 2.71, 2.83, 3.65, 4.56, 4.34, 5.1, 5.24, 5.69, 5.77, 5.72, 6.07, 6.4, 7.42, 7.6, 7.15, 6.14, 5.81, 5.72, 7.63, 7.94, 8.05, 8.05, 8.49, 8.49, 8.82, 8.77, 8.94, 8.05, 6.77, 6.41, 5.51, 5.38, 5.16, 8.48, 7.82, 18.33, 15.08, 11.44, 7.59, 6.7, 5.35, 4.58, 3.96, 2.28, -6.45, -6.45, -6.45, 0.0, 0.0, 0.0, 0.0, 0.0, 0.0, 1.64, 1.84, 1.84, 1.9, 1.9, 1.83, 1.83, 1.83, 0.92, 0.96, 0.99, 0.96, 0.99, 1.06, 1.06, 1.1, 1.1, 1.1, 1.15, 1.15, 1.11, 1.11, 1.11, 1.08, 1.08, 1.11, 1.11, 1.08, 1.04, 1.04, 1.0, 1.0, 0.0, 0.0, 0.0, 0.0, 0.0, 1.0, 1.0, 1.0, 0.93, 0.93, 1.84, 1.7, 1.76, 2.71, 2.95, 3.65, 3.81, 4.56, 4.74, 4.83, 5.24, 5.37, 5.77, 6.18, 6.44, 7.12, 7.37, 7.15, 6.66, 6.55, 6.54, 6.4, 6.7, 8.33, 7.89, 7.89, 8.49, 8.94, 8.77, 9.11, 8.8, 7.27, 5.95, 5.2, 4.71, 5.01, 6.88, 8.26, 12.64, 15.43, 12.5, 8.37, 6.2, 4.68, 3.19, 2.53, 1.98, -2.37, -2.37, -2.37, 0.0, 0.0, 0.0, 0.0, 0.0, 0.77, 1.77, 1.84, 1.84, 1.9, 1.9, 1.77, 0.92, 0.92, 0.92, 0.96, 0.96, 0.96, 0.96, 1.06, 1.06, 1.06, 1.1, 1.1, 1.15, 1.11, 1.11, 1.11, 0.0, 1.08, 1.08, 1.11, 1.11, 1.08, 1.04, 1.04, 1.0, 1.0, 0.0, 0.0, 0.0, 0.0, 0.0, 1.0, 0.97, 0.97, 0.89, 0.93, 1.77, 1.63, 1.76, 2.71, 2.71, 2.95, 3.65, 3.81, 4.34, 4.5, 5.1, 5.24, 4.95, 5.77, 6.18, 6.55, 7.4, 7.37, 7.15, 7.15, 6.94, 7.12, 6.99, 8.77, 7.89, 8.48, 7.81, 8.49, 8.94, 9.11, 9.21, 8.43, 6.44, 5.0, 4.81, 5.72, 7.2, 9.54, 10.43, 13.02, 11.29, 9.32, 7.49, 5.1, 3.68, 2.22, 1.65, -1.71, -1.71, -1.71, 0.0, 0.0, 0.0, 0.0, 0.0, 0.83, 1.77, 1.84, 1.84, 1.9, 0.96, 0.89, 0.92, 0.92, 0.92, 0.96, 0.0, 0.0, 0.0, 0.0, 0.0, 0.0, 0.0, 0.0, 0.0, 0.0, 0.0, 0.0, 0.0, 0.0, 0.0, 0.0, 0.0, 0.0, 1.04, 1.04, 0.0, 0.0, 0.0, 0.0, 0.0, 0.0, 0.89, 0.97, 0.93, 0.86, 0.86, 0.86, 0.86, 1.63, 1.69, 2.49, 2.71, 2.71, 3.65, 3.99, 3.81, 4.34, 4.5, 4.26, 5.24, 5.24, 5.69, 5.69, 6.18, 6.6, 6.88, 7.52, 7.6, 7.52, 7.31, 6.88, 6.61, 8.48, 7.81, 8.24, 8.94, 9.39, 9.21, 8.43, 6.58, 4.62, 4.58, 5.62, 7.4, 10.56, 11.17, 12.35, 11.03, 10.22, 9.27, 7.32, 5.38, 3.41, 2.37, 0.0, 0.0, 0.0, 0.0, 0.0, 0.0, 0.0, 0.0, 0.83, 1.77, 1.84, 1.84, 1.9, 0.96, 0.89, 0.92, 0.92, 0.92, 0.96, 0.0, 0.0, 0.0, 0.0, 0.0, 0.0, 0.0, 0.0, 0.0, 0.0, 0.0, 0.0, 0.0, 0.0, 0.0, 0.0, 0.0, 0.0, 1.04, 1.04, 0.0, 0.0, 0.0, 0.0, 0.0, 0.0, 0.89, 0.97, 0.93, 0.86, 0.86, 0.86, 0.86, 1.63, 1.69, 2.49, 2.71, 2.71, 3.65, 3.99, 3.81, 4.34, 4.5, 4.26, 5.24, 5.24, 5.69, 5.69, 6.18, 6.6, 6.88, 7.52, 7.6, 7.52, 7.31, 6.88, 6.61, 8.48, 7.81, 8.24, 8.94, 9.39, 9.21, 8.43, 6.58, 5.21, 4.47, 4.81, 7.0, 10.64, 12.22, 11.91, 11.3, 10.75, 9.54, 8.93, 7.67, 5.73, 4.06, 0.0, 0.0, 0.0]}]